| time (UTC) | temp F | wind direction | speed knots | gust knots | rain 1hr in | rain 24hr in | rain mn in | humidity % | barometer mb |
| 20260504224224 | 52 | 103 | 1.7 | 6.1 | 0.00 | 0.06 | 0.00 | 88 | 1009.5 |
| 20260504224124 | 52 | 103 | 1.7 | 6.1 | 0.00 | 0.06 | 0.00 | 88 | 1009.5 |
| 20260504224001 | 52 | 103 | 0.9 | 6.1 | 0.00 | 0.06 | 0.00 | 87 | 1009.5 |
| 20260504223924 | 52 | 103 | 0.9 | 6.1 | 0.00 | 0.06 | 0.00 | 87 | 1009.5 |
| 20260504223822 | 53 | 103 | 0.9 | 6.1 | 0.00 | 0.06 | 0.00 | 87 | 1009.5 |
| 20260504223718 | 53 | 125 | 0.9 | 6.1 | 0.00 | 0.06 | 0.00 | 88 | 1009.5 |
| 20260504223618 | 53 | 126 | 0.9 | 6.1 | 0.00 | 0.06 | 0.00 | 88 | 1009.5 |
| 20260504223518 | 53 | 96 | 0.0 | 2.6 | 0.00 | 0.06 | 0.00 | 88 | 1009.5 |
| 20260504223458 | 53 | 72 | 0.0 | 2.6 | 0.00 | 0.06 | 0.00 | 88 | 1009.5 |
| 20260504223418 | 53 | 71 | 0.0 | 2.6 | 0.00 | 0.06 | 0.00 | 88 | 1009.5 |
| 20260504223316 | 53 | 318 | 0.0 | 0.0 | 0.00 | 0.06 | 0.00 | 88 | 1009.5 |
| 20260504223222 | 53 | 317 | 0.0 | 1.7 | 0.00 | 0.06 | 0.00 | 88 | 1009.4 |
| 20260504223216 | 53 | 317 | 0.0 | 1.7 | 0.00 | 0.06 | 0.00 | 88 | 1009.5 |
| 20260504223212 | 53 | 317 | 0.0 | 1.7 | 0.00 | 0.06 | 0.00 | 88 | 1009.5 |
| 20260504223203 | 53 | 317 | 0.0 | 1.7 | 0.00 | 0.06 | 0.00 | 88 | 1009.4 |
| 20260504222911 | 53 | 317 | 0.0 | 1.7 | 0.00 | 0.06 | 0.00 | 88 | 1009.4 |
| 20260504222809 | 53 | 317 | 0.9 | 1.7 | 0.00 | 0.06 | 0.00 | 88 | 1009.5 |
| 20260504222710 | 53 | 317 | 0.9 | 1.7 | 0.00 | 0.06 | 0.00 | 88 | 1009.4 |
| 20260504222612 | 53 | 317 | 0.9 | 1.7 | 0.00 | 0.06 | 0.00 | 88 | 1009.4 |
| 20260504222508 | 53 | 317 | 0.9 | 1.7 | 0.00 | 0.06 | 0.00 | 88 | 1009.4 |
| 20260504222452 | 53 | 317 | 0.9 | 1.7 | 0.00 | 0.06 | 0.00 | 88 | 1009.5 |
| 20260504222406 | 53 | 317 | 0.9 | 1.7 | 0.00 | 0.06 | 0.00 | 88 | 1009.5 |
| 20260504222305 | 53 | 317 | 0.9 | 1.7 | 0.00 | 0.06 | 0.00 | 88 | 1009.5 |
| 20260504222204 | 53 | 317 | 0.9 | 1.7 | 0.00 | 0.06 | 0.00 | 88 | 1009.5 |
| 20260504222101 | 53 | 317 | 0.9 | 1.7 | 0.00 | 0.06 | 0.00 | 88 | 1009.4 |
| 20260504222001 | 53 | 317 | 0.9 | 1.7 | 0.00 | 0.06 | 0.00 | 88 | 1009.5 |
| 20260504221952 | 53 | 317 | 0.9 | 1.7 | 0.00 | 0.06 | 0.00 | 88 | 1009.5 |
| 20260504221901 | 53 | 317 | 0.9 | 1.7 | 0.00 | 0.06 | 0.00 | 88 | 1009.5 |
| 20260504221801 | 53 | 317 | 0.9 | 1.7 | 0.00 | 0.06 | 0.00 | 88 | 1009.5 |
| 20260504221701 | 53 | 317 | 0.9 | 1.7 | 0.00 | 0.06 | 0.00 | 88 | 1009.5 |
| 20260504221601 | 53 | 317 | 0.9 | 1.7 | 0.00 | 0.06 | 0.00 | 88 | 1009.5 |
| 20260504221501 | 53 | 317 | 0.9 | 1.7 | 0.00 | 0.06 | 0.00 | 88 | 1009.5 |
| 20260504221451 | 53 | 317 | 0.9 | 1.7 | 0.00 | 0.06 | 0.00 | 88 | 1009.5 |
| 20260504221405 | 54 | 317 | 0.9 | 1.7 | 0.00 | 0.06 | 0.00 | 88 | 1009.5 |
| 20260504221301 | 54 | 317 | 0.0 | 1.7 | 0.00 | 0.06 | 0.00 | 88 | 1009.5 |
| 20260504221201 | 54 | 317 | 0.0 | 1.7 | 0.00 | 0.06 | 0.00 | 88 | 1009.5 |
| 20260504221101 | 54 | 317 | 0.0 | 1.7 | 0.00 | 0.06 | 0.00 | 88 | 1009.5 |
| 20260504221001 | 54 | 317 | 0.0 | 1.7 | 0.00 | 0.06 | 0.00 | 88 | 1009.5 |
| 20260504220952 | 54 | 317 | 0.9 | 1.7 | 0.00 | 0.06 | 0.00 | 88 | 1009.5 |
| 20260504220901 | 54 | 317 | 0.9 | 1.7 | 0.00 | 0.06 | 0.00 | 88 | 1009.5 |
| 20260504220801 | 54 | 317 | 0.9 | 1.7 | 0.00 | 0.06 | 0.00 | 87 | 1009.6 |
| 20260504220701 | 54 | 317 | 0.9 | 1.7 | 0.00 | 0.06 | 0.00 | 87 | 1009.6 |
| 20260504220606 | 54 | 317 | 0.9 | 1.7 | 0.00 | 0.06 | 0.00 | 87 | 1009.6 |
| 20260504220501 | 54 | 317 | 0.9 | 1.7 | 0.00 | 0.06 | 0.00 | 87 | 1009.6 |
| 20260504220452 | 54 | 317 | 0.9 | 1.7 | 0.00 | 0.06 | 0.00 | 87 | 1009.5 |
| 20260504220401 | 54 | 317 | 0.9 | 1.7 | 0.00 | 0.06 | 0.00 | 87 | 1009.5 |
| 20260504220300 | 54 | 317 | 0.9 | 1.7 | 0.00 | 0.06 | 0.00 | 87 | 1009.6 |
| 20260504220200 | 54 | 317 | 0.9 | 1.7 | 0.00 | 0.06 | 0.00 | 87 | 1009.6 |
| 20260504220103 | 54 | 317 | 0.9 | 1.7 | 0.00 | 0.06 | 0.00 | 87 | 1009.6 |
| 20260504220001 | 54 | 317 | 0.0 | 1.7 | 0.00 | 0.06 | 0.00 | 88 | 1009.7 |
| 20260504215951 | 54 | 317 | 0.0 | 1.7 | 0.00 | 0.06 | 0.06 | 88 | 1009.6 |
| 20260504215901 | 54 | 317 | 0.0 | 1.7 | 0.00 | 0.06 | 0.06 | 88 | 1009.6 |
| 20260504215801 | 54 | 317 | 0.0 | 1.7 | 0.00 | 0.06 | 0.06 | 88 | 1009.7 |
| 20260504215701 | 54 | 317 | 0.0 | 1.7 | 0.00 | 0.06 | 0.06 | 88 | 1009.7 |
| 20260504215600 | 54 | 317 | 0.0 | 0.0 | 0.00 | 0.06 | 0.06 | 87 | 1009.7 |
| 20260504215500 | 54 | 317 | 0.0 | 0.9 | 0.00 | 0.06 | 0.06 | 87 | 1009.7 |
| 20260504215449 | 54 | 317 | 0.0 | 0.9 | 0.00 | 0.06 | 0.06 | 87 | 1009.7 |
| 20260504215400 | 54 | 317 | 0.0 | 0.9 | 0.00 | 0.06 | 0.06 | 87 | 1009.7 |
| 20260504215300 | 54 | 317 | 0.0 | 0.9 | 0.00 | 0.06 | 0.06 | 87 | 1009.7 |
| 20260504215201 | 54 | 317 | 0.0 | 1.7 | 0.00 | 0.06 | 0.06 | 87 | 1009.7 |
| 20260504215101 | 54 | 317 | 0.0 | 1.7 | 0.00 | 0.06 | 0.06 | 87 | 1009.7 |
| 20260504215002 | 54 | 317 | 0.0 | 1.7 | 0.00 | 0.06 | 0.06 | 87 | 1009.7 |
| 20260504214948 | 54 | 317 | 0.0 | 1.7 | 0.00 | 0.06 | 0.06 | 87 | 1009.8 |
| 20260504214901 | 54 | 317 | 0.0 | 1.7 | 0.00 | 0.06 | 0.06 | 87 | 1009.8 |
| 20260504214759 | 54 | 317 | 0.0 | 1.7 | 0.00 | 0.06 | 0.06 | 87 | 1009.8 |
| 20260504214717 | 54 | 317 | 0.0 | 1.7 | 0.00 | 0.06 | 0.06 | 87 | 1009.8 |
| 20260504214712 | 54 | 317 | 0.0 | 1.7 | 0.00 | 0.06 | 0.06 | 87 | 1009.8 |
| 20260504214708 | 54 | 317 | 0.0 | 1.7 | 0.00 | 0.06 | 0.06 | 87 | 1009.8 |
| 20260504214700 | 54 | 317 | 0.0 | 1.7 | 0.00 | 0.06 | 0.06 | 87 | 1009.9 |
| 20260504214358 | 54 | 317 | 0.0 | 1.7 | 0.00 | 0.06 | 0.06 | 87 | 1009.9 |
| 20260504214253 | 54 | 317 | 0.0 | 1.7 | 0.00 | 0.06 | 0.06 | 87 | 1009.9 |
| 20260504214153 | 54 | 317 | 0.0 | 0.9 | 0.00 | 0.06 | 0.06 | 87 | 1009.9 |
| 20260504214053 | 54 | 317 | 0.0 | 0.0 | 0.00 | 0.06 | 0.06 | 87 | 1009.9 |
| 20260504213946 | 54 | 317 | 0.0 | 0.0 | 0.00 | 0.06 | 0.06 | 87 | 1009.8 |
| 20260504213852 | 55 | 317 | 0.0 | 0.0 | 0.00 | 0.06 | 0.06 | 86 | 1009.9 |
| 20260504213747 | 55 | 317 | 0.0 | 0.0 | 0.00 | 0.06 | 0.06 | 87 | 1009.9 |
| 20260504213647 | 55 | 317 | 0.0 | 0.9 | 0.00 | 0.06 | 0.06 | 86 | 1009.9 |
| 20260504213547 | 55 | 317 | 0.0 | 1.7 | 0.00 | 0.06 | 0.06 | 86 | 1009.9 |
| 20260504213445 | 55 | 317 | 0.9 | 2.6 | 0.00 | 0.06 | 0.06 | 86 | 1009.9 |
| 20260504213347 | 55 | 317 | 0.9 | 2.6 | 0.00 | 0.06 | 0.06 | 86 | 1009.9 |
| 20260504213247 | 55 | 317 | 0.9 | 2.6 | 0.00 | 0.06 | 0.06 | 86 | 1009.9 |
| 20260504213145 | 55 | 317 | 0.9 | 2.6 | 0.00 | 0.06 | 0.06 | 86 | 1010.0 |
| 20260504213046 | 55 | 317 | 0.9 | 2.6 | 0.00 | 0.06 | 0.06 | 86 | 1010.0 |
| 20260504212942 | 55 | 317 | 0.9 | 2.6 | 0.00 | 0.06 | 0.06 | 86 | 1010.0 |
| 20260504212904 | 55 | 317 | 0.9 | 2.6 | 0.00 | 0.06 | 0.06 | 86 | 1010.0 |
| 20260504212741 | 55 | 317 | 0.9 | 2.6 | 0.00 | 0.06 | 0.06 | 86 | 1010.0 |
| 20260504212639 | 55 | 317 | 0.9 | 2.6 | 0.00 | 0.06 | 0.06 | 86 | 1010.0 |
| 20260504212539 | 55 | 317 | 0.9 | 2.6 | 0.00 | 0.06 | 0.06 | 86 | 1010.0 |
| 20260504212443 | 55 | 317 | 0.9 | 2.6 | 0.00 | 0.06 | 0.06 | 86 | 1010.0 |
| 20260504212437 | 55 | 318 | 0.9 | 2.6 | 0.00 | 0.06 | 0.06 | 86 | 1010.0 |
| 20260504212335 | 55 | 319 | 0.9 | 2.6 | 0.00 | 0.06 | 0.06 | 86 | 1010.0 |
| 20260504212229 | 55 | 319 | 0.9 | 2.6 | 0.00 | 0.06 | 0.06 | 86 | 1010.0 |
| 20260504212129 | 55 | 319 | 1.7 | 2.6 | 0.00 | 0.06 | 0.06 | 86 | 1010.0 |
| 20260504212029 | 55 | 319 | 1.7 | 2.6 | 0.00 | 0.06 | 0.06 | 86 | 1010.0 |
| 20260504211929 | 55 | 319 | 1.7 | 2.6 | 0.00 | 0.06 | 0.06 | 86 | 1010.0 |
| 20260504211829 | 55 | 319 | 0.9 | 2.6 | 0.00 | 0.06 | 0.06 | 85 | 1010.0 |
| 20260504211729 | 55 | 319 | 1.7 | 2.6 | 0.00 | 0.06 | 0.06 | 85 | 1010.0 |
| 20260504211629 | 55 | 319 | 1.7 | 2.6 | 0.00 | 0.06 | 0.06 | 85 | 1010.0 |
| 20260504211529 | 55 | 319 | 1.7 | 2.6 | 0.00 | 0.06 | 0.06 | 85 | 1009.9 |
| 20260504211429 | 55 | 319 | 1.7 | 2.6 | 0.00 | 0.06 | 0.06 | 85 | 1010.0 |
| 20260504211330 | 55 | 319 | 1.7 | 2.6 | 0.00 | 0.06 | 0.06 | 85 | 1010.0 |
| 20260504211229 | 55 | 319 | 0.9 | 2.6 | 0.00 | 0.06 | 0.06 | 85 | 1010.0 |
| 20260504211129 | 55 | 296 | 0.9 | 2.6 | 0.00 | 0.06 | 0.06 | 85 | 1010.0 |
| 20260504211029 | 55 | 294 | 0.9 | 2.6 | 0.00 | 0.06 | 0.06 | 85 | 1010.0 |
| 20260504210942 | 55 | 295 | 0.9 | 2.6 | 0.00 | 0.06 | 0.06 | 85 | 1010.0 |
| 20260504210929 | 55 | 290 | 0.9 | 2.6 | 0.00 | 0.06 | 0.06 | 85 | 1010.0 |
| 20260504210829 | 55 | 290 | 0.9 | 2.6 | 0.00 | 0.06 | 0.06 | 85 | 1010.0 |
| 20260504210729 | 55 | 290 | 0.9 | 2.6 | 0.00 | 0.06 | 0.06 | 85 | 1010.0 |
| 20260504210629 | 56 | 276 | 0.9 | 2.6 | 0.00 | 0.06 | 0.06 | 86 | 1010.0 |
| 20260504210529 | 56 | 267 | 0.0 | 2.6 | 0.00 | 0.06 | 0.06 | 86 | 1010.0 |
| 20260504210440 | 56 | 260 | 0.0 | 2.6 | 0.00 | 0.06 | 0.06 | 86 | 1010.0 |
| 20260504210429 | 56 | 223 | 0.0 | 1.7 | 0.00 | 0.06 | 0.06 | 86 | 1010.0 |
| 20260504210329 | 56 | 150 | 0.0 | 1.7 | 0.00 | 0.06 | 0.06 | 86 | 1009.9 |
| 20260504210229 | 56 | 150 | 0.0 | 1.7 | 0.00 | 0.06 | 0.06 | 86 | 1009.9 |
| 20260504210207 | 56 | 150 | 0.0 | 1.7 | 0.00 | 0.06 | 0.06 | 85 | 1010.0 |
| 20260504210202 | 56 | 150 | 0.0 | 1.7 | 0.00 | 0.06 | 0.06 | 86 | 1009.9 |
| 20260504210158 | 56 | 150 | 0.0 | 1.7 | 0.00 | 0.06 | 0.06 | 86 | 1009.9 |
| 20260504205929 | 56 | 150 | 0.0 | 1.7 | 0.00 | 0.06 | 0.06 | 85 | 1010.0 |
| 20260504205829 | 56 | 150 | 0.0 | 1.7 | 0.00 | 0.06 | 0.06 | 85 | 1009.9 |
| 20260504205729 | 56 | 150 | 0.0 | 0.9 | 0.00 | 0.06 | 0.06 | 84 | 1009.9 |
| 20260504205629 | 56 | 150 | 0.0 | 0.9 | 0.00 | 0.06 | 0.06 | 84 | 1010.0 |
| 20260504205529 | 56 | 150 | 0.0 | 0.9 | 0.00 | 0.06 | 0.06 | 84 | 1009.9 |
| 20260504205429 | 56 | 150 | 0.0 | 0.9 | 0.00 | 0.06 | 0.06 | 84 | 1009.9 |
| 20260504205328 | 56 | 150 | 0.0 | 1.7 | 0.00 | 0.06 | 0.06 | 84 | 1009.9 |
| 20260504205228 | 56 | 150 | 0.0 | 1.7 | 0.00 | 0.06 | 0.06 | 84 | 1009.9 |
| 20260504205203 | 56 | 150 | 0.9 | 1.7 | 0.00 | 0.06 | 0.06 | 84 | 1009.9 |
| 20260504205158 | 56 | 150 | 0.0 | 1.7 | 0.00 | 0.06 | 0.06 | 84 | 1009.9 |
| 20260504205154 | 56 | 150 | 0.0 | 1.7 | 0.00 | 0.06 | 0.06 | 84 | 1009.9 |
| 20260504204928 | 56 | 150 | 0.9 | 1.7 | 0.00 | 0.06 | 0.06 | 84 | 1009.9 |
| 20260504204829 | 56 | 150 | 0.9 | 2.6 | 0.00 | 0.06 | 0.06 | 85 | 1009.9 |
| 20260504204729 | 56 | 150 | 0.9 | 2.6 | 0.00 | 0.06 | 0.06 | 83 | 1009.9 |
| 20260504204629 | 56 | 150 | 0.9 | 2.6 | 0.00 | 0.06 | 0.06 | 83 | 1009.9 |
| 20260504204529 | 56 | 150 | 0.9 | 2.6 | 0.00 | 0.06 | 0.06 | 83 | 1010.0 |
| 20260504204429 | 56 | 150 | 0.9 | 2.6 | 0.00 | 0.06 | 0.06 | 83 | 1010.0 |
| 20260504204329 | 56 | 150 | 0.9 | 2.6 | 0.00 | 0.06 | 0.06 | 83 | 1010.0 |
| 20260504204229 | 56 | 150 | 0.9 | 2.6 | 0.00 | 0.06 | 0.06 | 83 | 1010.0 |
| 20260504204129 | 56 | 150 | 0.9 | 2.6 | 0.00 | 0.06 | 0.06 | 83 | 1010.0 |
| 20260504204029 | 57 | 150 | 0.9 | 2.6 | 0.00 | 0.06 | 0.06 | 83 | 1010.1 |
| 20260504203928 | 57 | 150 | 0.9 | 2.6 | 0.00 | 0.06 | 0.06 | 83 | 1010.1 |
| 20260504203828 | 57 | 150 | 0.9 | 2.6 | 0.00 | 0.06 | 0.06 | 83 | 1010.1 |
| 20260504203729 | 57 | 149 | 0.9 | 2.6 | 0.00 | 0.06 | 0.06 | 83 | 1010.0 |
| 20260504203629 | 57 | 115 | 0.9 | 2.6 | 0.00 | 0.06 | 0.06 | 83 | 1010.1 |
| 20260504203529 | 57 | 115 | 0.9 | 2.6 | 0.00 | 0.06 | 0.06 | 83 | 1010.1 |
| 20260504203429 | 57 | 115 | 0.9 | 2.6 | 0.00 | 0.06 | 0.06 | 81 | 1010.1 |
| 20260504203329 | 57 | 115 | 0.9 | 2.6 | 0.00 | 0.06 | 0.06 | 80 | 1010.1 |
| 20260504203230 | 57 | 115 | 0.9 | 2.6 | 0.00 | 0.06 | 0.06 | 81 | 1010.0 |
| 20260504203129 | 57 | 116 | 0.9 | 2.6 | 0.00 | 0.06 | 0.06 | 82 | 1010.0 |
| 20260504203029 | 57 | 115 | 0.9 | 2.6 | 0.00 | 0.06 | 0.06 | 82 | 1010.1 |
| 20260504202928 | 57 | 106 | 0.9 | 2.6 | 0.00 | 0.06 | 0.06 | 82 | 1010.0 |
| 20260504202829 | 57 | 105 | 0.9 | 2.6 | 0.00 | 0.06 | 0.06 | 83 | 1010.0 |
| 20260504202729 | 57 | 96 | 0.9 | 2.6 | 0.00 | 0.06 | 0.06 | 82 | 1010.0 |
| 20260504202629 | 57 | 95 | 0.9 | 2.6 | 0.00 | 0.06 | 0.06 | 82 | 1010.0 |
| 20260504202529 | 57 | 95 | 0.9 | 3.5 | 0.00 | 0.06 | 0.06 | 82 | 1010.0 |
| 20260504202437 | 57 | 94 | 0.9 | 3.5 | 0.00 | 0.06 | 0.06 | 83 | 1010.0 |
| 20260504202429 | 57 | 93 | 0.9 | 3.5 | 0.00 | 0.06 | 0.06 | 83 | 1010.0 |
| 20260504202328 | 56 | 92 | 0.9 | 3.5 | 0.00 | 0.06 | 0.06 | 82 | 1010.0 |
| 20260504202230 | 57 | 92 | 0.9 | 3.5 | 0.00 | 0.06 | 0.06 | 82 | 1010.0 |
| 20260504202128 | 56 | 94 | 0.9 | 3.5 | 0.00 | 0.06 | 0.06 | 82 | 1009.9 |
| 20260504202029 | 56 | 61 | 0.9 | 3.5 | 0.00 | 0.06 | 0.06 | 82 | 1010.0 |
| 20260504201936 | 56 | 109 | 0.9 | 3.5 | 0.00 | 0.06 | 0.06 | 82 | 1009.9 |
| 20260504201929 | 56 | 110 | 0.9 | 3.5 | 0.00 | 0.06 | 0.06 | 82 | 1009.9 |
| 20260504201828 | 56 | 100 | 0.9 | 3.5 | 0.00 | 0.06 | 0.06 | 82 | 1010.0 |
| 20260504201729 | 56 | 101 | 0.9 | 3.5 | 0.00 | 0.06 | 0.06 | 83 | 1010.0 |
| 20260504201628 | 56 | 101 | 0.9 | 3.5 | 0.00 | 0.06 | 0.06 | 84 | 1010.0 |
| 20260504201529 | 56 | 97 | 0.9 | 2.6 | 0.00 | 0.06 | 0.06 | 84 | 1010.0 |
| 20260504201434 | 56 | 98 | 0.9 | 2.6 | 0.00 | 0.06 | 0.06 | 84 | 1010.0 |
| 20260504201427 | 56 | 99 | 0.9 | 2.6 | 0.00 | 0.06 | 0.06 | 84 | 1010.0 |
| 20260504201327 | 56 | 95 | 0.0 | 2.6 | 0.00 | 0.06 | 0.06 | 84 | 1010.1 |
| 20260504201227 | 56 | 105 | 0.0 | 2.6 | 0.00 | 0.06 | 0.06 | 85 | 1010.1 |
| 20260504201127 | 56 | 102 | 0.0 | 1.7 | 0.00 | 0.06 | 0.06 | 85 | 1010.1 |
| 20260504201027 | 57 | 105 | 0.0 | 1.7 | 0.00 | 0.06 | 0.06 | 85 | 1010.1 |
| 20260504200927 | 57 | 104 | 0.0 | 1.7 | 0.00 | 0.06 | 0.06 | 84 | 1010.1 |
| 20260504200824 | 57 | 104 | 0.0 | 1.7 | 0.00 | 0.06 | 0.06 | 84 | 1010.2 |
| 20260504200720 | 57 | 104 | 0.0 | 1.7 | 0.00 | 0.06 | 0.06 | 85 | 1010.2 |
| 20260504200620 | 57 | 104 | 0.0 | 1.7 | 0.00 | 0.06 | 0.06 | 85 | 1010.2 |
| 20260504200521 | 57 | 104 | 0.0 | 1.7 | 0.00 | 0.06 | 0.06 | 85 | 1010.2 |
| 20260504200420 | 57 | 104 | 0.9 | 1.7 | 0.00 | 0.06 | 0.06 | 85 | 1010.4 |
| 20260504200320 | 57 | 104 | 0.9 | 1.7 | 0.00 | 0.06 | 0.06 | 85 | 1010.4 |
| 20260504200220 | 57 | 104 | 0.9 | 1.7 | 0.00 | 0.06 | 0.06 | 85 | 1010.4 |
| 20260504200121 | 57 | 104 | 0.9 | 2.6 | 0.00 | 0.06 | 0.06 | 85 | 1010.4 |
| 20260504200021 | 57 | 104 | 0.9 | 2.6 | 0.00 | 0.06 | 0.06 | 84 | 1010.4 |
| 20260504195935 | 57 | 104 | 0.9 | 2.6 | 0.00 | 0.06 | 0.06 | 85 | 1010.4 |
| 20260504195921 | 57 | 103 | 0.9 | 2.6 | 0.00 | 0.06 | 0.06 | 85 | 1010.4 |
| 20260504195821 | 57 | 104 | 0.9 | 2.6 | 0.01 | 0.06 | 0.06 | 84 | 1010.4 |
| 20260504195718 | 57 | 104 | 0.9 | 2.6 | 0.01 | 0.06 | 0.06 | 85 | 1010.5 |
| 20260504195618 | 57 | 104 | 0.9 | 2.6 | 0.01 | 0.06 | 0.06 | 84 | 1010.5 |
| 20260504195514 | 57 | 103 | 0.9 | 3.5 | 0.01 | 0.06 | 0.06 | 83 | 1010.5 |
| 20260504195415 | 57 | 103 | 0.9 | 3.5 | 0.02 | 0.06 | 0.06 | 83 | 1010.4 |
| 20260504195315 | 57 | 103 | 0.9 | 3.5 | 0.02 | 0.06 | 0.06 | 83 | 1010.4 |
| 20260504195214 | 57 | 103 | 1.7 | 6.1 | 0.02 | 0.06 | 0.06 | 83 | 1010.4 |
| 20260504195157 | 57 | 107 | 1.7 | 7.0 | 0.02 | 0.06 | 0.06 | 83 | 1010.4 |
| 20260504195151 | 57 | 104 | 1.7 | 7.0 | 0.02 | 0.06 | 0.06 | 83 | 1010.2 |
| 20260504195147 | 57 | 107 | 1.7 | 7.0 | 0.02 | 0.06 | 0.06 | 83 | 1010.2 |
| 20260504194915 | 57 | 107 | 1.7 | 7.0 | 0.02 | 0.06 | 0.06 | 82 | 1010.4 |
| 20260504194815 | 57 | 108 | 1.7 | 7.0 | 0.03 | 0.06 | 0.06 | 82 | 1010.4 |
| 20260504194715 | 57 | 110 | 2.6 | 7.0 | 0.03 | 0.06 | 0.06 | 82 | 1010.2 |
| 20260504194615 | 57 | 111 | 2.6 | 7.0 | 0.04 | 0.06 | 0.06 | 82 | 1010.2 |
| 20260504194514 | 57 | 127 | 2.6 | 7.0 | 0.05 | 0.06 | 0.06 | 82 | 1010.1 |
| 20260504194414 | 57 | 128 | 2.6 | 7.0 | 0.05 | 0.06 | 0.06 | 82 | 1010.2 |
| 20260504194314 | 57 | 129 | 2.6 | 7.0 | 0.06 | 0.06 | 0.06 | 83 | 1010.2 |
| 20260504194214 | 57 | 140 | 2.6 | 7.0 | 0.06 | 0.06 | 0.06 | 82 | 1010.2 |
| 20260504194115 | 57 | 155 | 1.7 | 6.1 | 0.06 | 0.06 | 0.06 | 82 | 1010.2 |
| 20260504194015 | 57 | 123 | 1.7 | 6.1 | 0.06 | 0.06 | 0.06 | 83 | 1010.2 |
| 20260504193914 | 57 | 153 | 1.7 | 6.1 | 0.06 | 0.06 | 0.06 | 82 | 1010.2 |
| 20260504193815 | 57 | 150 | 1.7 | 6.1 | 0.06 | 0.06 | 0.06 | 83 | 1010.1 |
| 20260504193715 | 57 | 163 | 1.7 | 6.1 | 0.06 | 0.06 | 0.06 | 83 | 1010.1 |
| 20260504193611 | 57 | 173 | 1.7 | 6.1 | 0.06 | 0.06 | 0.06 | 83 | 1010.2 |
| 20260504193512 | 57 | 161 | 1.7 | 6.1 | 0.06 | 0.06 | 0.06 | 83 | 1010.1 |
| 20260504193434 | 57 | 163 | 0.9 | 6.1 | 0.06 | 0.06 | 0.06 | 83 | 1010.1 |
| 20260504193411 | 57 | 175 | 0.9 | 6.1 | 0.06 | 0.06 | 0.06 | 83 | 1010.1 |
| 20260504193311 | 57 | 148 | 0.9 | 3.5 | 0.06 | 0.06 | 0.06 | 83 | 1010.1 |
| 20260504193211 | 57 | 114 | 0.9 | 2.6 | 0.06 | 0.06 | 0.06 | 82 | 1010.1 |
| 20260504193111 | 57 | 96 | 0.9 | 2.6 | 0.06 | 0.06 | 0.06 | 82 | 1010.0 |
| 20260504193010 | 57 | 96 | 0.9 | 3.5 | 0.06 | 0.06 | 0.06 | 82 | 1010.0 |
| 20260504192910 | 57 | 95 | 0.9 | 3.5 | 0.06 | 0.06 | 0.06 | 82 | 1010.0 |
| 20260504192811 | 57 | 96 | 0.9 | 3.5 | 0.06 | 0.06 | 0.06 | 81 | 1010.0 |
| 20260504192711 | 57 | 101 | 0.9 | 3.5 | 0.06 | 0.06 | 0.06 | 81 | 1010.0 |
| 20260504192611 | 58 | 101 | 0.9 | 3.5 | 0.06 | 0.06 | 0.06 | 81 | 1010.0 |
| 20260504192511 | 58 | 98 | 0.9 | 3.5 | 0.06 | 0.06 | 0.06 | 81 | 1010.0 |
| 20260504192410 | 58 | 101 | 0.9 | 3.5 | 0.06 | 0.06 | 0.06 | 81 | 1010.0 |
| 20260504192310 | 58 | 101 | 0.9 | 3.5 | 0.06 | 0.06 | 0.06 | 81 | 1010.0 |
| 20260504192210 | 58 | 111 | 0.9 | 3.5 | 0.06 | 0.06 | 0.06 | 81 | 1010.0 |
| 20260504192110 | 58 | 111 | 0.9 | 3.5 | 0.06 | 0.06 | 0.06 | 82 | 1010.0 |
| 20260504192010 | 58 | 105 | 0.9 | 3.5 | 0.06 | 0.06 | 0.06 | 81 | 1010.0 |
| 20260504191932 | 58 | 94 | 0.9 | 3.5 | 0.06 | 0.06 | 0.06 | 81 | 1010.0 |
| 20260504191911 | 58 | 91 | 0.9 | 3.5 | 0.06 | 0.06 | 0.06 | 81 | 1010.0 |
| 20260504191811 | 58 | 91 | 1.7 | 5.2 | 0.06 | 0.06 | 0.06 | 81 | 1010.0 |
| 20260504191707 | 58 | 90 | 1.7 | 5.2 | 0.06 | 0.06 | 0.06 | 81 | 1010.0 |
| 20260504191606 | 58 | 90 | 1.7 | 6.1 | 0.06 | 0.06 | 0.06 | 81 | 1010.0 |
| 20260504191506 | 58 | 90 | 1.7 | 6.1 | 0.06 | 0.06 | 0.06 | 81 | 1010.1 |
| 20260504191431 | 58 | 84 | 1.7 | 6.1 | 0.06 | 0.06 | 0.06 | 81 | 1010.1 |
| 20260504191407 | 58 | 90 | 1.7 | 6.1 | 0.06 | 0.06 | 0.06 | 81 | 1010.1 |
| 20260504191306 | 58 | 85 | 1.7 | 6.1 | 0.06 | 0.06 | 0.06 | 80 | 1010.1 |
| 20260504191206 | 58 | 96 | 1.7 | 6.1 | 0.06 | 0.06 | 0.06 | 80 | 1010.1 |
| 20260504191106 | 58 | 92 | 2.6 | 6.1 | 0.06 | 0.06 | 0.06 | 80 | 1010.1 |
| 20260504191007 | 59 | 103 | 2.6 | 6.1 | 0.06 | 0.06 | 0.06 | 80 | 1010.2 |
| 20260504190930 | 59 | 61 | 1.7 | 6.1 | 0.06 | 0.06 | 0.06 | 80 | 1010.2 |
| 20260504190906 | 59 | 106 | 1.7 | 6.1 | 0.06 | 0.06 | 0.06 | 80 | 1010.2 |
| 20260504190806 | 59 | 88 | 1.7 | 6.1 | 0.06 | 0.06 | 0.06 | 80 | 1010.4 |
| 20260504190706 | 59 | 115 | 1.7 | 6.1 | 0.06 | 0.06 | 0.06 | 80 | 1010.4 |
| 20260504190652 | 59 | 82 | 1.7 | 3.5 | 0.06 | 0.06 | 0.06 | 78 | 1010.5 |
| 20260504190646 | 59 | 88 | 1.7 | 4.3 | 0.06 | 0.06 | 0.06 | 79 | 1010.5 |
| 20260504190640 | 59 | 79 | 1.7 | 4.3 | 0.06 | 0.06 | 0.06 | 79 | 1010.4 |
| 20260504190407 | 59 | 82 | 1.7 | 3.5 | 0.06 | 0.06 | 0.06 | 77 | 1010.5 |
| 20260504190307 | 60 | 81 | 1.7 | 3.5 | 0.06 | 0.06 | 0.06 | 77 | 1010.5 |
| 20260504190207 | 60 | 101 | 1.7 | 3.5 | 0.06 | 0.06 | 0.06 | 76 | 1010.4 |
| 20260504190107 | 60 | 91 | 1.7 | 3.5 | 0.06 | 0.06 | 0.06 | 76 | 1010.5 |
| 20260504190007 | 60 | 116 | 1.7 | 4.3 | 0.06 | 0.06 | 0.06 | 76 | 1010.5 |
| 20260504185931 | 60 | 96 | 1.7 | 4.3 | 0.06 | 0.06 | 0.05 | 76 | 1010.5 |
| 20260504185911 | 60 | 114 | 1.7 | 4.3 | 0.05 | 0.05 | 0.05 | 76 | 1010.5 |
| 20260504185802 | 61 | 103 | 1.7 | 4.3 | 0.05 | 0.05 | 0.05 | 76 | 1010.6 |
| 20260504185702 | 61 | 111 | 2.6 | 5.2 | 0.05 | 0.05 | 0.05 | 75 | 1010.7 |
| 20260504185602 | 61 | 127 | 2.6 | 7.8 | 0.05 | 0.05 | 0.05 | 75 | 1010.7 |
| 20260504185503 | 62 | 115 | 3.5 | 9.6 | 0.05 | 0.05 | 0.04 | 76 | 1010.7 |
| 20260504185430 | 62 | 105 | 3.5 | 9.6 | 0.04 | 0.04 | 0.04 | 76 | 1010.8 |
| 20260504185421 | 63 | 230 | 6.1 | 15.6 | 0.03 | 0.03 | 0.02 | 72 | 1010.7 |
| 20260504185416 | 62 | 115 | 3.5 | 9.6 | 0.04 | 0.04 | 0.04 | 76 | 1010.8 |
| 20260504185407 | 62 | 134 | 4.3 | 9.6 | 0.04 | 0.04 | 0.04 | 74 | 1010.8 |
| 20260504185403 | 62 | 183 | 5.2 | 11.3 | 0.04 | 0.04 | 0.04 | 72 | 1010.8 |
| 20260504185145 | 62 | 183 | 5.2 | 15.6 | 0.04 | 0.04 | 0.03 | 73 | 1010.8 |
| 20260504185141 | 63 | 202 | 5.2 | 15.6 | 0.03 | 0.03 | 0.03 | 72 | 1010.8 |
| 20260504184903 | 63 | 231 | 6.1 | 15.6 | 0.03 | 0.03 | 0.02 | 72 | 1010.7 |
| 20260504184800 | 63 | 228 | 6.1 | 15.6 | 0.02 | 0.02 | 0.02 | 70 | 1010.7 |
| 20260504184700 | 63 | 279 | 7.0 | 15.6 | 0.02 | 0.02 | 0.02 | 68 | 1010.7 |
| 20260504184600 | 64 | 232 | 7.0 | 15.6 | 0.02 | 0.02 | 0.01 | 68 | 1010.7 |
| 20260504184501 | 64 | 245 | 7.0 | 15.6 | 0.01 | 0.01 | 0.01 | 67 | 1010.6 |
| 20260504184430 | 64 | 259 | 7.0 | 15.6 | 0.01 | 0.01 | 0.00 | 67 | 1010.6 |
| 20260504184407 | 64 | 277 | 7.0 | 15.6 | 0.01 | 0.01 | 0.00 | 67 | 1010.6 |
| 20260504184301 | 64 | 232 | 7.0 | 15.6 | 0.00 | 0.00 | 0.00 | 65 | 1010.6 |
| 20260504184200 | 65 | 257 | 7.8 | 15.6 | 0.00 | 0.00 | 0.00 | 64 | 1010.6 |
| 20260504184100 | 65 | 273 | 7.8 | 14.8 | 0.00 | 0.00 | 0.00 | 62 | 1010.6 |
| 20260504184001 | 65 | 238 | 7.8 | 14.8 | 0.00 | 0.00 | 0.00 | 61 | 1010.5 |
| 20260504183930 | 65 | 240 | 7.8 | 14.8 | 0.00 | 0.00 | 0.00 | 61 | 1010.5 |
| 20260504183901 | 65 | 273 | 7.8 | 14.8 | 0.00 | 0.00 | 0.00 | 60 | 1010.5 |
| 20260504183801 | 65 | 225 | 7.8 | 14.8 | 0.00 | 0.00 | 0.00 | 58 | 1010.4 |
| 20260504183701 | 65 | 212 | 7.8 | 14.8 | 0.00 | 0.00 | 0.00 | 57 | 1010.4 |
| 20260504183654 | 66 | 219 | 7.8 | 17.4 | 0.00 | 0.00 | 0.00 | 54 | 1010.0 |
| 20260504183646 | 66 | 210 | 8.7 | 14.8 | 0.00 | 0.00 | 0.00 | 55 | 1010.1 |
| 20260504183642 | 66 | 212 | 8.7 | 17.4 | 0.00 | 0.00 | 0.00 | 54 | 1010.1 |
| 20260504183401 | 66 | 192 | 7.8 | 17.4 | 0.00 | 0.00 | 0.00 | 54 | 1010.0 |
| 20260504183301 | 66 | 209 | 7.8 | 17.4 | 0.00 | 0.00 | 0.00 | 55 | 1009.9 |
| 20260504183201 | 67 | 159 | 7.0 | 17.4 | 0.00 | 0.00 | 0.00 | 55 | 1009.9 |
| 20260504183152 | 67 | 215 | 5.2 | 17.4 | 0.00 | 0.00 | 0.00 | 54 | 1009.8 |
| 20260504183147 | 67 | 197 | 7.0 | 17.4 | 0.00 | 0.00 | 0.00 | 55 | 1009.9 |
| 20260504183143 | 67 | 211 | 6.1 | 17.4 | 0.00 | 0.00 | 0.00 | 54 | 1009.8 |
| 20260504182900 | 67 | 210 | 5.2 | 17.4 | 0.00 | 0.00 | 0.00 | 53 | 1009.8 |
| 20260504182800 | 68 | 236 | 4.3 | 17.4 | 0.00 | 0.00 | 0.00 | 53 | 1009.8 |
| 20260504182700 | 68 | 207 | 3.5 | 17.4 | 0.00 | 0.00 | 0.00 | 53 | 1009.8 |
| 20260504182600 | 68 | 231 | 3.5 | 17.4 | 0.00 | 0.00 | 0.00 | 52 | 1009.8 |
| 20260504182500 | 68 | 202 | 1.7 | 13.0 | 0.00 | 0.00 | 0.00 | 52 | 1009.7 |
| 20260504182429 | 68 | 201 | 1.7 | 7.0 | 0.00 | 0.00 | 0.00 | 52 | 1009.6 |
| 20260504182401 | 68 | 216 | 1.7 | 6.1 | 0.00 | 0.00 | 0.00 | 51 | 1009.6 |
| 20260504182301 | 68 | 207 | 1.7 | 5.2 | 0.00 | 0.00 | 0.00 | 50 | 1009.4 |
| 20260504182201 | 68 | 42 | 0.9 | 4.3 | 0.00 | 0.00 | 0.00 | 49 | 1009.3 |
| 20260504182101 | 68 | 41 | 1.7 | 4.3 | 0.00 | 0.00 | 0.00 | 49 | 1009.3 |
| 20260504182002 | 69 | 41 | 1.7 | 4.3 | 0.00 | 0.00 | 0.00 | 50 | 1009.2 |
| 20260504181900 | 69 | 41 | 1.7 | 4.3 | 0.00 | 0.00 | 0.00 | 49 | 1009.1 |
| 20260504181801 | 69 | 41 | 1.7 | 4.3 | 0.00 | 0.00 | 0.00 | 49 | 1009.1 |
| 20260504181702 | 69 | 41 | 1.7 | 4.3 | 0.00 | 0.00 | 0.00 | 49 | 1009.1 |
| 20260504181601 | 69 | 71 | 1.7 | 3.5 | 0.00 | 0.00 | 0.00 | 48 | 1009.1 |
| 20260504181501 | 69 | 71 | 1.7 | 3.5 | 0.00 | 0.00 | 0.00 | 48 | 1009.1 |
| 20260504181401 | 69 | 71 | 1.7 | 3.5 | 0.00 | 0.00 | 0.00 | 48 | 1009.1 |
| 20260504181301 | 69 | 26 | 1.7 | 3.5 | 0.00 | 0.00 | 0.00 | 48 | 1009.1 |
| 20260504181202 | 69 | 26 | 1.7 | 4.3 | 0.00 | 0.00 | 0.00 | 48 | 1009.1 |
| 20260504181101 | 69 | 24 | 1.7 | 6.1 | 0.00 | 0.00 | 0.00 | 48 | 1009.1 |
| 20260504181001 | 69 | 37 | 1.7 | 6.1 | 0.00 | 0.00 | 0.00 | 48 | 1009.1 |
| 20260504180922 | 69 | 37 | 2.6 | 6.1 | 0.00 | 0.00 | 0.00 | 47 | 1009.1 |
| 20260504180901 | 69 | 38 | 2.6 | 6.1 | 0.00 | 0.00 | 0.00 | 47 | 1009.1 |
| 20260504180801 | 69 | 38 | 2.6 | 6.1 | 0.00 | 0.00 | 0.00 | 48 | 1009.1 |
| 20260504180700 | 69 | 35 | 2.6 | 6.1 | 0.00 | 0.00 | 0.00 | 47 | 1009.1 |
| 20260504180600 | 69 | 19 | 2.6 | 6.1 | 0.00 | 0.00 | 0.00 | 47 | 1009.1 |
| 20260504180500 | 69 | 19 | 2.6 | 6.1 | 0.00 | 0.00 | 0.00 | 47 | 1009.1 |
| 20260504180401 | 69 | 22 | 2.6 | 6.1 | 0.00 | 0.00 | 0.00 | 47 | 1009.2 |
| 20260504180300 | 69 | 22 | 2.6 | 6.1 | 0.00 | 0.00 | 0.00 | 47 | 1009.1 |
| 20260504180200 | 69 | 31 | 2.6 | 6.1 | 0.00 | 0.00 | 0.00 | 47 | 1009.1 |
| 20260504180100 | 69 | 19 | 2.6 | 6.1 | 0.00 | 0.00 | 0.00 | 47 | 1009.1 |
| 20260504180001 | 69 | 13 | 2.6 | 6.1 | 0.00 | 0.00 | 0.00 | 46 | 1009.1 |
| 20260504175922 | 69 | 12 | 2.6 | 6.1 | 0.00 | 0.00 | 0.00 | 46 | 1009.1 |
| 20260504175900 | 69 | 19 | 2.6 | 6.1 | 0.00 | 0.00 | 0.00 | 46 | 1009.1 |
| 20260504175800 | 69 | 20 | 2.6 | 6.1 | 0.00 | 0.00 | 0.00 | 47 | 1009.1 |
| 20260504175700 | 69 | 40 | 1.7 | 6.1 | 0.00 | 0.00 | 0.00 | 47 | 1009.1 |
| 20260504175646 | 69 | 43 | 1.7 | 6.1 | 0.00 | 0.00 | 0.00 | 47 | 1009.1 |
| 20260504175636 | 69 | 20 | 1.7 | 6.1 | 0.00 | 0.00 | 0.00 | 46 | 1009.1 |
| 20260504175632 | 69 | 36 | 1.7 | 6.1 | 0.00 | 0.00 | 0.00 | 47 | 1009.1 |
| 20260504175401 | 69 | 5 | 1.7 | 6.1 | 0.00 | 0.00 | 0.00 | 47 | 1009.1 |
| 20260504175301 | 69 | 21 | 2.6 | 6.1 | 0.00 | 0.00 | 0.00 | 47 | 1009.1 |
| 20260504175201 | 70 | 335 | 2.6 | 6.1 | 0.00 | 0.00 | 0.00 | 47 | 1009.1 |
| 20260504175101 | 70 | 24 | 1.7 | 4.3 | 0.00 | 0.00 | 0.00 | 46 | 1009.1 |
| 20260504175002 | 70 | 36 | 1.7 | 4.3 | 0.00 | 0.00 | 0.00 | 46 | 1009.1 |
| 20260504174901 | 70 | 36 | 1.7 | 4.3 | 0.00 | 0.00 | 0.00 | 46 | 1009.1 |
| 20260504174801 | 70 | 36 | 2.6 | 4.3 | 0.00 | 0.00 | 0.00 | 46 | 1009.1 |
| 20260504174701 | 70 | 28 | 1.7 | 4.3 | 0.00 | 0.00 | 0.00 | 46 | 1009.0 |
| 20260504174600 | 70 | 30 | 1.7 | 4.3 | 0.00 | 0.00 | 0.00 | 47 | 1009.0 |
| 20260504174502 | 70 | 30 | 1.7 | 4.3 | 0.00 | 0.00 | 0.00 | 46 | 1009.0 |
| 20260504174401 | 70 | 16 | 1.7 | 4.3 | 0.00 | 0.00 | 0.00 | 46 | 1009.0 |
| 20260504174301 | 70 | 19 | 1.7 | 3.5 | 0.00 | 0.00 | 0.00 | 46 | 1009.0 |
| 20260504174201 | 70 | 36 | 1.7 | 3.5 | 0.00 | 0.00 | 0.00 | 46 | 1009.0 |
| 20260504174101 | 70 | 44 | 1.7 | 3.5 | 0.00 | 0.00 | 0.00 | 45 | 1009.0 |
| 20260504174001 | 70 | 44 | 1.7 | 3.5 | 0.00 | 0.00 | 0.00 | 46 | 1009.0 |
| 20260504173901 | 70 | 44 | 0.9 | 3.5 | 0.00 | 0.00 | 0.00 | 46 | 1009.1 |
| 20260504173801 | 70 | 25 | 0.9 | 3.5 | 0.00 | 0.00 | 0.00 | 45 | 1009.0 |
| 20260504173701 | 70 | 25 | 0.9 | 3.5 | 0.00 | 0.00 | 0.00 | 46 | 1009.0 |
| 20260504173601 | 70 | 26 | 0.9 | 3.5 | 0.00 | 0.00 | 0.00 | 46 | 1009.0 |
| 20260504173501 | 70 | 25 | 0.9 | 3.5 | 0.00 | 0.00 | 0.00 | 45 | 1009.0 |
| 20260504173400 | 70 | 86 | 0.9 | 2.6 | 0.00 | 0.00 | 0.00 | 46 | 1009.0 |
| 20260504173301 | 70 | 87 | 0.9 | 2.6 | 0.00 | 0.00 | 0.00 | 46 | 1009.0 |
| 20260504173201 | 70 | 87 | 0.9 | 1.7 | 0.00 | 0.00 | 0.00 | 46 | 1009.0 |
| 20260504173100 | 70 | 88 | 0.9 | 1.7 | 0.00 | 0.00 | 0.00 | 47 | 1009.0 |
| 20260504173001 | 70 | 88 | 0.9 | 1.7 | 0.00 | 0.00 | 0.00 | 46 | 1009.0 |
| 20260504172900 | 70 | 88 | 0.9 | 1.7 | 0.00 | 0.00 | 0.00 | 46 | 1009.0 |
| 20260504172801 | 70 | 87 | 0.9 | 1.7 | 0.00 | 0.00 | 0.00 | 46 | 1009.0 |
| 20260504172700 | 70 | 87 | 0.9 | 1.7 | 0.00 | 0.00 | 0.00 | 46 | 1009.0 |
| 20260504172601 | 70 | 87 | 0.9 | 1.7 | 0.00 | 0.00 | 0.00 | 46 | 1009.0 |
| 20260504172501 | 71 | 87 | 0.9 | 1.7 | 0.00 | 0.00 | 0.00 | 49 | 1008.9 |
| 20260504172419 | 71 | 87 | 0.9 | 1.7 | 0.00 | 0.00 | 0.00 | 49 | 1008.9 |
| 20260504172401 | 71 | 87 | 0.9 | 1.7 | 0.00 | 0.00 | 0.00 | 48 | 1008.9 |
| 20260504172303 | 71 | 87 | 0.9 | 1.7 | 0.00 | 0.00 | 0.00 | 48 | 1009.0 |
| 20260504172201 | 71 | 87 | 0.0 | 1.7 | 0.00 | 0.00 | 0.00 | 47 | 1009.0 |
| 20260504172143 | 71 | 87 | 0.0 | 1.7 | 0.00 | 0.00 | 0.00 | 47 | 1009.0 |
| 20260504172135 | 71 | 87 | 0.0 | 1.7 | 0.00 | 0.00 | 0.00 | 47 | 1009.0 |
| 20260504172130 | 71 | 87 | 0.0 | 1.7 | 0.00 | 0.00 | 0.00 | 47 | 1009.0 |
| 20260504171901 | 71 | 87 | 0.0 | 1.7 | 0.00 | 0.00 | 0.00 | 46 | 1009.0 |
| 20260504171800 | 71 | 87 | 0.9 | 2.6 | 0.00 | 0.00 | 0.00 | 46 | 1009.0 |
| 20260504171701 | 71 | 87 | 0.9 | 2.6 | 0.00 | 0.00 | 0.00 | 47 | 1009.0 |
| 20260504171601 | 71 | 87 | 0.9 | 2.6 | 0.00 | 0.00 | 0.00 | 47 | 1009.0 |
| 20260504171501 | 71 | 87 | 0.9 | 2.6 | 0.00 | 0.00 | 0.00 | 46 | 1009.0 |
| 20260504171401 | 71 | 87 | 0.9 | 2.6 | 0.00 | 0.00 | 0.00 | 46 | 1009.0 |
| 20260504171301 | 71 | 87 | 0.9 | 2.6 | 0.00 | 0.00 | 0.00 | 46 | 1009.0 |
| 20260504171201 | 71 | 87 | 0.9 | 2.6 | 0.00 | 0.00 | 0.00 | 46 | 1009.0 |
| 20260504171101 | 71 | 87 | 0.9 | 2.6 | 0.00 | 0.00 | 0.00 | 45 | 1009.1 |
| 20260504171001 | 71 | 87 | 0.9 | 2.6 | 0.00 | 0.00 | 0.00 | 45 | 1009.0 |
| 20260504170901 | 71 | 87 | 0.9 | 2.6 | 0.00 | 0.00 | 0.00 | 46 | 1009.0 |
| 20260504170801 | 71 | 88 | 0.0 | 2.6 | 0.00 | 0.00 | 0.00 | 47 | 1009.1 |
| 20260504170658 | 71 | 88 | 0.0 | 2.6 | 0.00 | 0.00 | 0.00 | 47 | 1009.1 |
| 20260504170558 | 71 | 89 | 0.0 | 1.7 | 0.00 | 0.00 | 0.00 | 48 | 1009.0 |
| 20260504170458 | 71 | 98 | 0.0 | 0.0 | 0.00 | 0.00 | 0.00 | 47 | 1009.0 |
| 20260504170418 | 71 | 98 | 0.0 | 0.0 | 0.00 | 0.00 | 0.00 | 46 | 1009.1 |
| 20260504170358 | 71 | 98 | 0.0 | 0.9 | 0.00 | 0.00 | 0.00 | 46 | 1009.1 |
| 20260504170257 | 71 | 98 | 0.0 | 0.9 | 0.00 | 0.00 | 0.00 | 46 | 1009.1 |
| 20260504170156 | 71 | 98 | 0.0 | 0.9 | 0.00 | 0.00 | 0.00 | 45 | 1009.1 |
| 20260504160402 | 71 | 101 | 0.9 | 3.5 | 0.00 | 0.00 | 0.00 | 42 | 1009.1 |
| 20260504160325 | 71 | 101 | 0.9 | 3.5 | 0.00 | 0.00 | 0.00 | 42 | 1009.1 |
| 20260504160224 | 71 | 103 | 0.9 | 3.5 | 0.00 | 0.00 | 0.00 | 43 | 1009.1 |
| 20260504160122 | 71 | 103 | 0.9 | 3.5 | 0.00 | 0.00 | 0.00 | 46 | 1009.1 |
| 20260504151117 | 74 | 215 | 0.9 | 3.5 | 0.00 | 0.00 | 0.00 | 41 | 1009.2 |
| 20260504151113 | 74 | 80 | 0.9 | 3.5 | 0.00 | 0.00 | 0.00 | 40 | 1009.2 |
| 20260504150758 | 74 | 80 | 0.9 | 3.5 | 0.00 | 0.00 | 0.00 | 41 | 1009.2 |
| 20260504150655 | 74 | 81 | 0.9 | 3.5 | 0.00 | 0.00 | 0.00 | 40 | 1009.2 |
| 20260504150555 | 74 | 81 | 0.9 | 3.5 | 0.00 | 0.00 | 0.00 | 41 | 1009.2 |
| 20260504150456 | 74 | 81 | 0.9 | 3.5 | 0.00 | 0.00 | 0.00 | 42 | 1009.2 |
| 20260504150400 | 74 | 81 | 0.9 | 3.5 | 0.00 | 0.00 | 0.00 | 40 | 1009.2 |
| 20260504150355 | 74 | 81 | 0.9 | 3.5 | 0.00 | 0.00 | 0.00 | 40 | 1009.2 |
| 20260504150256 | 74 | 81 | 0.9 | 3.5 | 0.00 | 0.00 | 0.00 | 41 | 1009.2 |
| 20260504150154 | 74 | 80 | 0.9 | 3.5 | 0.00 | 0.00 | 0.00 | 41 | 1009.2 |
| 20260504141328 | 75 | 86 | 1.7 | 6.1 | 0.00 | 0.00 | 0.00 | 40 | 1009.5 |
| 20260504141229 | 75 | 53 | 1.7 | 6.1 | 0.00 | 0.00 | 0.00 | 40 | 1009.5 |
| 20260504141129 | 75 | 53 | 1.7 | 6.1 | 0.00 | 0.00 | 0.00 | 41 | 1009.5 |
| 20260504141029 | 75 | 53 | 1.7 | 6.1 | 0.00 | 0.00 | 0.00 | 42 | 1009.5 |
| 20260504140929 | 75 | 40 | 1.7 | 6.1 | 0.00 | 0.00 | 0.00 | 42 | 1009.5 |
| 20260504140900 | 74 | 41 | 1.7 | 6.1 | 0.00 | 0.00 | 0.00 | 42 | 1009.5 |
| 20260504140828 | 74 | 41 | 1.7 | 6.1 | 0.00 | 0.00 | 0.00 | 42 | 1009.6 |
| 20260504140726 | 74 | 14 | 1.7 | 6.1 | 0.00 | 0.00 | 0.00 | 40 | 1009.6 |
| 20260504140626 | 74 | 14 | 1.7 | 6.1 | 0.00 | 0.00 | 0.00 | 42 | 1009.6 |
| 20260504140526 | 74 | 10 | 1.7 | 6.1 | 0.00 | 0.00 | 0.00 | 42 | 1009.7 |
| 20260504140426 | 74 | 9 | 1.7 | 6.1 | 0.00 | 0.00 | 0.00 | 41 | 1009.6 |
| 20260504140400 | 74 | 9 | 1.7 | 6.1 | 0.00 | 0.00 | 0.00 | 42 | 1009.6 |
| 20260504140322 | 74 | 0 | 1.7 | 5.2 | 0.00 | 0.00 | 0.00 | 41 | 1009.7 |
| 20260504140221 | 74 | 9 | 1.7 | 5.2 | 0.00 | 0.00 | 0.00 | 41 | 1009.6 |
| 20260504140121 | 74 | 11 | 1.7 | 5.2 | 0.00 | 0.00 | 0.00 | 41 | 1009.7 |
| 20260504130800 | 71 | 0 | 1.7 | 4.3 | 0.00 | 0.00 | 0.00 | 47 | 1010.0 |
| 20260504130700 | 71 | 56 | 1.7 | 3.5 | 0.00 | 0.00 | 0.00 | 44 | 1010.0 |
| 20260504130600 | 71 | 113 | 1.7 | 3.5 | 0.00 | 0.00 | 0.00 | 43 | 1010.0 |
| 20260504130500 | 71 | 63 | 1.7 | 3.5 | 0.00 | 0.00 | 0.00 | 45 | 1010.1 |
| 20260504130400 | 71 | 11 | 1.7 | 3.5 | 0.00 | 0.00 | 0.00 | 46 | 1010.1 |
| 20260504130356 | 71 | 11 | 1.7 | 3.5 | 0.00 | 0.00 | 0.00 | 46 | 1010.1 |
| 20260504130300 | 71 | 11 | 1.7 | 3.5 | 0.00 | 0.00 | 0.00 | 46 | 1010.1 |
| 20260504130201 | 71 | 52 | 0.9 | 3.5 | 0.00 | 0.00 | 0.00 | 43 | 1010.1 |
| 20260504120239 | 72 | 94 | 1.7 | 7.0 | 0.00 | 0.00 | 0.00 | 42 | 1010.4 |
| 20260504120139 | 72 | 94 | 2.6 | 7.0 | 0.00 | 0.00 | 0.00 | 44 | 1010.4 |
| 20260504110630 | 70 | 58 | 3.5 | 10.4 | 0.00 | 0.00 | 0.00 | 46 | 1010.8 |
| 20260504110530 | 70 | 91 | 3.5 | 10.4 | 0.00 | 0.00 | 0.00 | 45 | 1010.8 |
| 20260504110429 | 70 | 121 | 3.5 | 10.4 | 0.00 | 0.00 | 0.00 | 47 | 1010.8 |
| 20260504110353 | 70 | 119 | 3.5 | 10.4 | 0.00 | 0.00 | 0.00 | 47 | 1010.8 |
| 20260504110329 | 70 | 83 | 3.5 | 10.4 | 0.00 | 0.00 | 0.00 | 47 | 1010.8 |
| 20260504110229 | 70 | 57 | 3.5 | 10.4 | 0.00 | 0.00 | 0.00 | 46 | 1010.8 |
| 20260504110129 | 70 | 84 | 3.5 | 10.4 | 0.00 | 0.00 | 0.00 | 46 | 1010.8 |
| 20260504100608 | 69 | 117 | 2.6 | 7.8 | 0.00 | 0.00 | 0.00 | 47 | 1011.5 |
| 20260504100602 | 69 | 95 | 2.6 | 7.8 | 0.00 | 0.00 | 0.00 | 48 | 1011.5 |
| 20260504100558 | 69 | 171 | 2.6 | 7.8 | 0.00 | 0.00 | 0.00 | 47 | 1011.5 |
| 20260504100317 | 69 | 106 | 2.6 | 7.8 | 0.00 | 0.00 | 0.00 | 47 | 1011.5 |
| 20260504100217 | 69 | 108 | 2.6 | 7.8 | 0.00 | 0.00 | 0.00 | 49 | 1011.6 |
| 20260504100117 | 69 | 118 | 2.6 | 7.8 | 0.00 | 0.00 | 0.00 | 47 | 1011.5 |
| 20260504082002 | 63 | 91 | 0.9 | 3.5 | 0.00 | 0.00 | 0.00 | 54 | 1012.6 |
| 20260504081901 | 63 | 91 | 0.9 | 3.5 | 0.00 | 0.00 | 0.00 | 54 | 1012.6 |
| 20260504081801 | 63 | 91 | 0.9 | 3.5 | 0.00 | 0.00 | 0.00 | 57 | 1012.6 |
| 20260504081701 | 63 | 95 | 1.7 | 3.5 | 0.00 | 0.00 | 0.00 | 56 | 1012.6 |
| 20260504081600 | 63 | 95 | 1.7 | 3.5 | 0.00 | 0.00 | 0.00 | 55 | 1012.6 |
| 20260504081500 | 63 | 89 | 1.7 | 3.5 | 0.00 | 0.00 | 0.00 | 56 | 1012.6 |
| 20260504081400 | 63 | 81 | 0.9 | 3.5 | 0.00 | 0.00 | 0.00 | 54 | 1012.6 |
| 20260504081329 | 63 | 115 | 0.9 | 3.5 | 0.00 | 0.00 | 0.00 | 54 | 1012.6 |
| 20260504081300 | 63 | 117 | 0.9 | 3.5 | 0.00 | 0.00 | 0.00 | 56 | 1012.6 |
| 20260504081200 | 63 | 73 | 0.9 | 3.5 | 0.00 | 0.00 | 0.00 | 57 | 1012.6 |
| 20260504081057 | 63 | 76 | 0.9 | 3.5 | 0.00 | 0.00 | 0.00 | 57 | 1012.6 |
| 20260504080957 | 63 | 89 | 0.9 | 3.5 | 0.00 | 0.00 | 0.00 | 55 | 1012.7 |
| 20260504080857 | 62 | 78 | 0.9 | 3.5 | 0.00 | 0.00 | 0.00 | 56 | 1012.6 |
| 20260504080829 | 62 | 65 | 0.9 | 3.5 | 0.00 | 0.00 | 0.00 | 56 | 1012.7 |
| 20260504080757 | 62 | 133 | 0.9 | 3.5 | 0.00 | 0.00 | 0.00 | 57 | 1012.7 |
| 20260504080656 | 62 | 132 | 0.9 | 3.5 | 0.00 | 0.00 | 0.00 | 57 | 1012.7 |
| 20260504080551 | 62 | 129 | 0.9 | 3.5 | 0.00 | 0.00 | 0.00 | 56 | 1012.7 |
| 20260504080451 | 62 | 129 | 0.9 | 3.5 | 0.00 | 0.00 | 0.00 | 58 | 1012.7 |
| 20260504080333 | 62 | 129 | 0.9 | 3.5 | 0.00 | 0.00 | 0.00 | 58 | 1012.7 |
| 20260504080251 | 62 | 129 | 0.9 | 3.5 | 0.00 | 0.00 | 0.00 | 59 | 1012.7 |
| 20260504080151 | 62 | 129 | 0.9 | 3.5 | 0.00 | 0.00 | 0.00 | 58 | 1012.7 |
| 20260504070329 | 61 | 243 | 0.0 | 4.3 | 0.00 | 0.00 | 0.00 | 62 | 1012.9 |
| 20260504070321 | 60 | 243 | 0.0 | 4.3 | 0.00 | 0.00 | 0.00 | 62 | 1012.9 |
| 20260504070220 | 61 | 108 | 0.0 | 1.7 | 0.00 | 0.00 | 0.00 | 61 | 1012.8 |
| 20260504070121 | 60 | 108 | 0.0 | 1.7 | 0.00 | 0.00 | 0.00 | 61 | 1012.8 |
| 20260504060248 | 55 | 92 | 0.9 | 1.7 | 0.00 | 0.00 | 0.00 | 73 | 1012.8 |
| 20260504060143 | 55 | 92 | 0.9 | 2.6 | 0.00 | 0.00 | 0.00 | 72 | 1012.8 |
| 20260504050729 | 52 | 113 | 0.9 | 5.2 | 0.00 | 0.00 | 0.00 | 75 | 1012.7 |
| 20260504050629 | 52 | 113 | 0.9 | 5.2 | 0.00 | 0.00 | 0.00 | 75 | 1012.7 |
| 20260504050528 | 52 | 129 | 0.9 | 5.2 | 0.00 | 0.00 | 0.00 | 75 | 1012.7 |
| 20260504050428 | 52 | 113 | 0.9 | 2.6 | 0.00 | 0.00 | 0.00 | 76 | 1012.7 |
| 20260504050329 | 52 | 111 | 0.9 | 2.6 | 0.00 | 0.00 | 0.00 | 76 | 1012.7 |
| 20260504050301 | 52 | 92 | 0.9 | 2.6 | 0.00 | 0.00 | 0.00 | 76 | 1012.7 |
| 20260504050229 | 52 | 90 | 0.9 | 2.6 | 0.00 | 0.00 | 0.00 | 76 | 1012.7 |
| 20260504050129 | 52 | 90 | 0.9 | 2.6 | 0.00 | 0.00 | 0.00 | 76 | 1012.7 |
| 20260504045929 | 51 | 90 | 0.9 | 2.6 | 0.00 | 0.00 | 0.00 | 76 | 1012.7 |
| 20260504045829 | 51 | 103 | 0.9 | 2.6 | 0.00 | 0.00 | 0.00 | 76 | 1012.7 |
| 20260504045801 | 51 | 79 | 0.9 | 2.6 | 0.00 | 0.00 | 0.00 | 76 | 1012.7 |
| 20260504045728 | 51 | 79 | 0.9 | 2.6 | 0.00 | 0.00 | 0.00 | 77 | 1012.7 |
| 20260504045628 | 51 | 109 | 0.9 | 1.7 | 0.00 | 0.00 | 0.00 | 76 | 1012.7 |
| 20260504045533 | 51 | 109 | 0.9 | 2.6 | 0.00 | 0.00 | 0.00 | 76 | 1012.7 |
| 20260504045429 | 51 | 109 | 0.9 | 2.6 | 0.00 | 0.00 | 0.00 | 77 | 1012.8 |
| 20260504045329 | 51 | 112 | 0.9 | 2.6 | 0.00 | 0.00 | 0.00 | 76 | 1012.8 |
| 20260504045300 | 51 | 113 | 0.9 | 2.6 | 0.00 | 0.00 | 0.00 | 76 | 1012.8 |
| 20260504045229 | 51 | 113 | 0.9 | 2.6 | 0.00 | 0.00 | 0.00 | 76 | 1012.8 |
| 20260504045133 | 51 | 113 | 0.9 | 2.6 | 0.00 | 0.00 | 0.00 | 76 | 1012.8 |
| 20260504045029 | 51 | 113 | 0.9 | 2.6 | 0.00 | 0.00 | 0.00 | 76 | 1012.8 |
| 20260504044929 | 51 | 113 | 0.9 | 2.6 | 0.00 | 0.00 | 0.00 | 76 | 1012.8 |
| 20260504044801 | 51 | 113 | 0.9 | 2.6 | 0.00 | 0.00 | 0.00 | 76 | 1012.9 |
| 20260504044728 | 51 | 113 | 0.9 | 2.6 | 0.00 | 0.00 | 0.00 | 76 | 1012.9 |
| 20260504044630 | 51 | 114 | 0.9 | 2.6 | 0.00 | 0.00 | 0.00 | 76 | 1012.9 |
| 20260504044528 | 51 | 112 | 0.9 | 2.6 | 0.00 | 0.00 | 0.00 | 76 | 1012.8 |
| 20260504044428 | 51 | 115 | 0.9 | 2.6 | 0.00 | 0.00 | 0.00 | 77 | 1012.8 |
| 20260504044329 | 51 | 115 | 0.9 | 2.6 | 0.00 | 0.00 | 0.00 | 76 | 1012.8 |
| 20260504044300 | 51 | 113 | 0.9 | 2.6 | 0.00 | 0.00 | 0.00 | 76 | 1012.8 |
| 20260504044229 | 51 | 117 | 0.9 | 2.6 | 0.00 | 0.00 | 0.00 | 76 | 1012.8 |
| 20260504044129 | 51 | 107 | 0.9 | 2.6 | 0.00 | 0.00 | 0.00 | 76 | 1012.8 |
| 20260504044029 | 51 | 107 | 0.9 | 2.6 | 0.00 | 0.00 | 0.00 | 77 | 1012.8 |
| 20260504043929 | 51 | 96 | 0.0 | 2.6 | 0.00 | 0.00 | 0.00 | 76 | 1012.8 |
| 20260504043801 | 51 | 92 | 0.0 | 1.7 | 0.00 | 0.00 | 0.00 | 76 | 1012.8 |
| 20260504043728 | 51 | 92 | 0.0 | 1.7 | 0.00 | 0.00 | 0.00 | 76 | 1012.8 |
| 20260504043628 | 51 | 92 | 0.0 | 0.9 | 0.00 | 0.00 | 0.00 | 76 | 1012.8 |
| 20260504043528 | 51 | 92 | 0.0 | 0.9 | 0.00 | 0.00 | 0.00 | 76 | 1012.8 |
| 20260504043428 | 51 | 92 | 0.0 | 1.7 | 0.00 | 0.00 | 0.00 | 76 | 1012.8 |
| 20260504043300 | 51 | 92 | 0.0 | 1.7 | 0.00 | 0.00 | 0.00 | 76 | 1012.8 |
| 20260504043228 | 51 | 92 | 0.0 | 1.7 | 0.00 | 0.00 | 0.00 | 76 | 1012.8 |
| 20260504043129 | 51 | 92 | 0.0 | 2.6 | 0.00 | 0.00 | 0.00 | 76 | 1012.8 |
| 20260504043029 | 51 | 92 | 0.9 | 2.6 | 0.00 | 0.00 | 0.00 | 76 | 1012.8 |
| 20260504042929 | 51 | 92 | 0.9 | 2.6 | 0.00 | 0.00 | 0.00 | 76 | 1012.8 |
| 20260504042800 | 51 | 92 | 0.9 | 2.6 | 0.00 | 0.00 | 0.00 | 76 | 1012.8 |
| 20260504042729 | 51 | 92 | 0.9 | 2.6 | 0.00 | 0.00 | 0.00 | 76 | 1012.8 |
| 20260504042628 | 51 | 92 | 0.9 | 2.6 | 0.00 | 0.00 | 0.00 | 76 | 1012.8 |
| 20260504042529 | 51 | 92 | 0.9 | 2.6 | 0.00 | 0.00 | 0.00 | 76 | 1012.8 |
| 20260504042428 | 51 | 92 | 0.9 | 2.6 | 0.00 | 0.00 | 0.00 | 76 | 1012.8 |
| 20260504042301 | 51 | 91 | 0.9 | 2.6 | 0.00 | 0.00 | 0.00 | 75 | 1012.8 |
| 20260504042228 | 51 | 91 | 0.9 | 2.6 | 0.00 | 0.00 | 0.00 | 76 | 1012.8 |
| 20260504042129 | 51 | 85 | 0.0 | 1.7 | 0.00 | 0.00 | 0.00 | 75 | 1012.8 |
| 20260504042029 | 51 | 83 | 0.0 | 1.7 | 0.00 | 0.00 | 0.00 | 75 | 1012.8 |
| 20260504041928 | 51 | 82 | 0.0 | 1.7 | 0.00 | 0.00 | 0.00 | 75 | 1012.8 |
| 20260504041801 | 51 | 81 | 0.0 | 1.7 | 0.00 | 0.00 | 0.00 | 75 | 1012.8 |
| 20260504041728 | 51 | 80 | 0.0 | 2.6 | 0.00 | 0.00 | 0.00 | 75 | 1012.8 |
| 20260504041628 | 51 | 80 | 0.0 | 2.6 | 0.00 | 0.00 | 0.00 | 75 | 1012.8 |
| 20260504041528 | 51 | 80 | 0.0 | 2.6 | 0.00 | 0.00 | 0.00 | 75 | 1012.9 |
| 20260504041429 | 51 | 80 | 0.9 | 2.6 | 0.00 | 0.00 | 0.00 | 75 | 1012.9 |
| 20260504041300 | 51 | 80 | 0.9 | 2.6 | 0.00 | 0.00 | 0.00 | 75 | 1012.8 |
| 20260504041229 | 51 | 80 | 0.9 | 2.6 | 0.00 | 0.00 | 0.00 | 75 | 1012.9 |
| 20260504041128 | 51 | 80 | 0.9 | 2.6 | 0.00 | 0.00 | 0.00 | 75 | 1012.9 |
| 20260504041028 | 51 | 80 | 0.9 | 2.6 | 0.00 | 0.00 | 0.00 | 75 | 1012.8 |
| 20260504040928 | 51 | 80 | 0.9 | 2.6 | 0.00 | 0.00 | 0.00 | 75 | 1012.8 |
| 20260504040800 | 51 | 80 | 0.0 | 2.6 | 0.00 | 0.00 | 0.00 | 75 | 1012.9 |
| 20260504040729 | 51 | 78 | 0.0 | 2.6 | 0.00 | 0.00 | 0.00 | 75 | 1012.8 |
| 20260504040629 | 51 | 92 | 0.0 | 1.7 | 0.00 | 0.00 | 0.00 | 74 | 1012.9 |
| 20260504040528 | 51 | 103 | 0.0 | 1.7 | 0.00 | 0.00 | 0.00 | 75 | 1012.8 |
| 20260504040428 | 51 | 94 | 0.0 | 1.7 | 0.00 | 0.00 | 0.00 | 75 | 1012.9 |
| 20260504040328 | 51 | 90 | 0.0 | 1.7 | 0.00 | 0.00 | 0.00 | 75 | 1012.9 |
| 20260504040301 | 51 | 88 | 0.0 | 1.7 | 0.00 | 0.00 | 0.00 | 74 | 1012.9 |
| 20260504040228 | 51 | 88 | 0.0 | 1.7 | 0.00 | 0.00 | 0.00 | 74 | 1012.9 |
| 20260504040129 | 51 | 88 | 0.0 | 2.6 | 0.00 | 0.00 | 0.00 | 74 | 1012.9 |
| 20260504040028 | 51 | 88 | 0.0 | 2.6 | 0.00 | 0.00 | 0.00 | 74 | 1012.9 |
| 20260504035928 | 51 | 88 | 0.0 | 2.6 | 0.00 | 0.00 | 0.00 | 74 | 1012.9 |
| 20260504035800 | 51 | 88 | 0.0 | 2.6 | 0.00 | 0.00 | 0.00 | 74 | 1012.9 |
| 20260504035729 | 51 | 88 | 0.0 | 2.6 | 0.00 | 0.00 | 0.00 | 74 | 1012.9 |
| 20260504035629 | 52 | 89 | 0.0 | 2.6 | 0.00 | 0.00 | 0.00 | 74 | 1013.0 |
| 20260504035528 | 52 | 86 | 0.9 | 2.6 | 0.00 | 0.00 | 0.00 | 74 | 1012.9 |
| 20260504035428 | 52 | 85 | 0.9 | 2.6 | 0.00 | 0.00 | 0.00 | 74 | 1012.9 |
| 20260504035328 | 52 | 86 | 0.9 | 2.6 | 0.00 | 0.00 | 0.00 | 74 | 1012.9 |
| 20260504035301 | 52 | 85 | 0.9 | 2.6 | 0.00 | 0.00 | 0.00 | 74 | 1012.9 |
| 20260504035228 | 52 | 85 | 0.0 | 2.6 | 0.00 | 0.00 | 0.00 | 74 | 1012.9 |
| 20260504035128 | 52 | 106 | 0.0 | 1.7 | 0.00 | 0.00 | 0.00 | 74 | 1013.0 |
| 20260504035029 | 52 | 106 | 0.0 | 1.7 | 0.00 | 0.00 | 0.00 | 74 | 1013.0 |
| 20260504035016 | 52 | 104 | 0.0 | 1.7 | 0.00 | 0.00 | 0.00 | 74 | 1013.0 |
| 20260504035011 | 52 | 104 | 0.0 | 1.7 | 0.00 | 0.00 | 0.00 | 73 | 1013.0 |
| 20260504034729 | 52 | 104 | 0.9 | 1.7 | 0.00 | 0.00 | 0.00 | 73 | 1013.0 |
| 20260504034629 | 52 | 104 | 0.0 | 1.7 | 0.00 | 0.00 | 0.00 | 73 | 1013.1 |
| 20260504034600 | 52 | 105 | 0.0 | 1.7 | 0.00 | 0.00 | 0.00 | 73 | 1013.1 |
| 20260504034429 | 52 | 105 | 0.0 | 1.7 | 0.00 | 0.00 | 0.00 | 73 | 1013.1 |
| 20260504034300 | 52 | 105 | 0.0 | 1.7 | 0.00 | 0.00 | 0.00 | 73 | 1013.0 |
| 20260504034228 | 52 | 105 | 0.0 | 1.7 | 0.00 | 0.00 | 0.00 | 73 | 1013.0 |
| 20260504034128 | 52 | 104 | 0.0 | 1.7 | 0.00 | 0.00 | 0.00 | 73 | 1013.1 |
| 20260504034028 | 52 | 105 | 0.0 | 1.7 | 0.00 | 0.00 | 0.00 | 73 | 1013.1 |
| 20260504033928 | 52 | 105 | 0.0 | 1.7 | 0.00 | 0.00 | 0.00 | 73 | 1013.0 |
| 20260504033800 | 52 | 105 | 0.0 | 1.7 | 0.00 | 0.00 | 0.00 | 73 | 1013.1 |
| 20260504033753 | 53 | 105 | 0.9 | 2.6 | 0.00 | 0.00 | 0.00 | 72 | 1013.0 |
| 20260504033748 | 52 | 105 | 0.0 | 1.7 | 0.00 | 0.00 | 0.00 | 73 | 1013.0 |
| 20260504033744 | 53 | 105 | 0.0 | 1.7 | 0.00 | 0.00 | 0.00 | 73 | 1013.0 |
| 20260504033736 | 53 | 105 | 0.0 | 1.7 | 0.00 | 0.00 | 0.00 | 73 | 1013.0 |
| 20260504033517 | 53 | 105 | 0.0 | 1.7 | 0.00 | 0.00 | 0.00 | 73 | 1013.0 |
| 20260504033512 | 53 | 105 | 0.9 | 2.6 | 0.00 | 0.00 | 0.00 | 73 | 1013.0 |
| 20260504033228 | 53 | 105 | 0.9 | 2.6 | 0.00 | 0.00 | 0.00 | 72 | 1013.0 |
| 20260504033128 | 53 | 105 | 0.9 | 2.6 | 0.00 | 0.00 | 0.00 | 72 | 1013.0 |
| 20260504033029 | 53 | 105 | 0.9 | 2.6 | 0.00 | 0.00 | 0.00 | 72 | 1013.0 |
| 20260504033016 | 53 | 105 | 0.9 | 2.6 | 0.00 | 0.00 | 0.00 | 72 | 1013.0 |
| 20260504033011 | 53 | 105 | 0.9 | 2.6 | 0.00 | 0.00 | 0.00 | 72 | 1013.0 |
| 20260504032728 | 53 | 105 | 0.9 | 2.6 | 0.00 | 0.00 | 0.00 | 72 | 1013.0 |
| 20260504032628 | 53 | 105 | 0.9 | 2.6 | 0.00 | 0.00 | 0.00 | 72 | 1013.0 |
| 20260504032528 | 53 | 105 | 0.9 | 2.6 | 0.00 | 0.00 | 0.00 | 72 | 1013.0 |
| 20260504032428 | 53 | 105 | 0.9 | 2.6 | 0.00 | 0.00 | 0.00 | 72 | 1013.0 |
| 20260504032329 | 53 | 109 | 0.9 | 2.6 | 0.00 | 0.00 | 0.00 | 72 | 1013.0 |
| 20260504032300 | 53 | 105 | 0.9 | 2.6 | 0.00 | 0.00 | 0.00 | 72 | 1013.0 |
| 20260504032229 | 53 | 102 | 0.9 | 2.6 | 0.00 | 0.00 | 0.00 | 72 | 1013.0 |
| 20260504032129 | 53 | 102 | 0.9 | 2.6 | 0.00 | 0.00 | 0.00 | 72 | 1013.0 |
| 20260504032029 | 53 | 98 | 0.9 | 2.6 | 0.00 | 0.00 | 0.00 | 72 | 1013.0 |
| 20260504031929 | 53 | 97 | 0.9 | 1.7 | 0.00 | 0.00 | 0.00 | 72 | 1013.0 |
| 20260504031800 | 53 | 97 | 0.0 | 1.7 | 0.00 | 0.00 | 0.00 | 72 | 1013.0 |
| 20260504031728 | 53 | 96 | 0.0 | 1.7 | 0.00 | 0.00 | 0.00 | 72 | 1013.0 |
| 20260504031628 | 53 | 96 | 0.9 | 1.7 | 0.00 | 0.00 | 0.00 | 72 | 1013.0 |
| 20260504031528 | 53 | 96 | 0.0 | 1.7 | 0.00 | 0.00 | 0.00 | 72 | 1013.0 |
| 20260504031428 | 53 | 97 | 0.0 | 1.7 | 0.00 | 0.00 | 0.00 | 72 | 1013.0 |
| 20260504031302 | 53 | 96 | 0.9 | 1.7 | 0.00 | 0.00 | 0.00 | 72 | 1013.0 |
| 20260504031229 | 53 | 96 | 0.9 | 1.7 | 0.00 | 0.00 | 0.00 | 72 | 1013.0 |
| 20260504031129 | 53 | 96 | 0.0 | 1.7 | 0.00 | 0.00 | 0.00 | 72 | 1013.0 |
| 20260504031029 | 53 | 96 | 0.0 | 1.7 | 0.00 | 0.00 | 0.00 | 72 | 1013.0 |
| 20260504030929 | 53 | 96 | 0.0 | 1.7 | 0.00 | 0.00 | 0.00 | 72 | 1013.0 |
| 20260504030801 | 53 | 96 | 0.0 | 1.7 | 0.00 | 0.00 | 0.00 | 72 | 1013.0 |
| 20260504030730 | 53 | 96 | 0.0 | 1.7 | 0.00 | 0.00 | 0.00 | 72 | 1012.9 |
| 20260504030629 | 53 | 96 | 0.0 | 1.7 | 0.00 | 0.00 | 0.00 | 72 | 1013.0 |
| 20260504030529 | 53 | 96 | 0.0 | 1.7 | 0.00 | 0.00 | 0.00 | 72 | 1013.0 |
| 20260504030429 | 53 | 96 | 0.0 | 1.7 | 0.00 | 0.00 | 0.00 | 72 | 1013.1 |
| 20260504030301 | 53 | 96 | 0.0 | 1.7 | 0.00 | 0.00 | 0.00 | 72 | 1013.1 |
| 20260504030229 | 53 | 96 | 0.0 | 1.7 | 0.00 | 0.00 | 0.00 | 72 | 1013.1 |
| 20260504030129 | 53 | 96 | 0.0 | 1.7 | 0.00 | 0.00 | 0.00 | 72 | 1013.1 |
| 20260504030033 | 53 | 96 | 0.0 | 1.7 | 0.00 | 0.00 | 0.00 | 73 | 1013.1 |
| 20260504025929 | 53 | 96 | 0.0 | 1.7 | 0.00 | 0.00 | 0.00 | 72 | 1013.1 |
| 20260504025829 | 53 | 96 | 0.0 | 1.7 | 0.00 | 0.00 | 0.00 | 72 | 1013.1 |
| 20260504025801 | 53 | 96 | 0.0 | 1.7 | 0.00 | 0.00 | 0.00 | 73 | 1013.1 |
| 20260504025729 | 53 | 101 | 0.9 | 1.7 | 0.00 | 0.00 | 0.00 | 73 | 1013.1 |
| 20260504025629 | 53 | 100 | 0.9 | 1.7 | 0.00 | 0.00 | 0.00 | 73 | 1013.1 |
| 20260504025530 | 53 | 100 | 0.9 | 2.6 | 0.00 | 0.00 | 0.00 | 73 | 1013.1 |
| 20260504025429 | 53 | 100 | 0.9 | 2.6 | 0.00 | 0.00 | 0.00 | 73 | 1013.0 |
| 20260504025301 | 53 | 100 | 0.9 | 2.6 | 0.00 | 0.00 | 0.00 | 73 | 1013.1 |
| 20260504025251 | 53 | 98 | 0.9 | 2.6 | 0.00 | 0.00 | 0.00 | 73 | 1013.1 |
| 20260504025243 | 53 | 100 | 0.9 | 2.6 | 0.00 | 0.00 | 0.00 | 73 | 1013.1 |
| 20260504025239 | 53 | 100 | 0.9 | 2.6 | 0.00 | 0.00 | 0.00 | 73 | 1013.1 |
| 20260504025235 | 53 | 100 | 0.9 | 2.6 | 0.00 | 0.00 | 0.00 | 73 | 1013.1 |
| 20260504025015 | 53 | 100 | 0.9 | 2.6 | 0.00 | 0.00 | 0.00 | 73 | 1013.1 |
| 20260504025011 | 53 | 98 | 0.9 | 2.6 | 0.00 | 0.00 | 0.00 | 73 | 1013.1 |
| 20260504024728 | 53 | 98 | 0.9 | 2.6 | 0.00 | 0.00 | 0.00 | 73 | 1013.1 |
| 20260504024628 | 53 | 98 | 0.9 | 2.6 | 0.00 | 0.00 | 0.00 | 73 | 1013.1 |
| 20260504024529 | 53 | 105 | 0.9 | 1.7 | 0.00 | 0.00 | 0.00 | 73 | 1013.0 |
| 20260504024428 | 53 | 106 | 0.9 | 1.7 | 0.00 | 0.00 | 0.00 | 73 | 1013.1 |
| 20260504024327 | 53 | 106 | 0.9 | 1.7 | 0.00 | 0.00 | 0.00 | 73 | 1013.0 |
| 20260504024302 | 53 | 107 | 0.9 | 1.7 | 0.00 | 0.00 | 0.00 | 73 | 1013.0 |
| 20260504024226 | 53 | 107 | 0.9 | 1.7 | 0.00 | 0.00 | 0.00 | 73 | 1013.1 |
| 20260504024126 | 53 | 107 | 0.9 | 1.7 | 0.00 | 0.00 | 0.00 | 73 | 1013.1 |
| 20260504024028 | 53 | 107 | 0.9 | 1.7 | 0.00 | 0.00 | 0.00 | 73 | 1013.1 |
| 20260504023924 | 53 | 107 | 0.9 | 1.7 | 0.00 | 0.00 | 0.00 | 73 | 1013.2 |
| 20260504023801 | 53 | 107 | 0.9 | 1.7 | 0.00 | 0.00 | 0.00 | 73 | 1013.2 |
| 20260504023723 | 53 | 107 | 0.9 | 1.7 | 0.00 | 0.00 | 0.00 | 73 | 1013.2 |
| 20260504023621 | 53 | 107 | 0.9 | 1.7 | 0.00 | 0.00 | 0.00 | 73 | 1013.2 |
| 20260504023520 | 53 | 107 | 0.9 | 1.7 | 0.00 | 0.00 | 0.00 | 73 | 1013.2 |
| 20260504023418 | 53 | 107 | 0.9 | 1.7 | 0.00 | 0.00 | 0.00 | 73 | 1013.2 |
| 20260504023301 | 52 | 107 | 0.9 | 1.7 | 0.00 | 0.00 | 0.00 | 73 | 1013.2 |
| 20260504023216 | 52 | 107 | 0.9 | 1.7 | 0.00 | 0.00 | 0.00 | 73 | 1013.3 |
| 20260504023114 | 52 | 107 | 0.9 | 1.7 | 0.00 | 0.00 | 0.00 | 73 | 1013.3 |
| 20260504023014 | 52 | 107 | 0.9 | 1.7 | 0.00 | 0.00 | 0.00 | 73 | 1013.3 |
| 20260504022912 | 52 | 107 | 0.9 | 1.7 | 0.00 | 0.00 | 0.00 | 73 | 1013.3 |
| 20260504022800 | 52 | 107 | 0.9 | 1.7 | 0.00 | 0.00 | 0.00 | 73 | 1013.2 |
| 20260504022709 | 52 | 107 | 0.9 | 1.7 | 0.00 | 0.00 | 0.00 | 74 | 1013.2 |
| 20260504022608 | 52 | 107 | 0.9 | 1.7 | 0.00 | 0.00 | 0.00 | 74 | 1013.3 |
| 20260504022512 | 52 | 107 | 0.9 | 1.7 | 0.00 | 0.00 | 0.00 | 74 | 1013.3 |
| 20260504022406 | 52 | 106 | 0.9 | 1.7 | 0.00 | 0.00 | 0.00 | 74 | 1013.3 |
| 20260504022301 | 52 | 106 | 0.9 | 1.7 | 0.00 | 0.00 | 0.00 | 74 | 1013.3 |
| 20260504022253 | 52 | 107 | 0.0 | 1.7 | 0.00 | 0.00 | 0.00 | 74 | 1013.2 |
| 20260504022240 | 52 | 107 | 0.0 | 1.7 | 0.00 | 0.00 | 0.00 | 74 | 1013.3 |
| 20260504022236 | 52 | 107 | 0.0 | 1.7 | 0.00 | 0.00 | 0.00 | 74 | 1013.3 |
| 20260504022021 | 52 | 106 | 0.0 | 1.7 | 0.00 | 0.00 | 0.00 | 74 | 1013.3 |
| 20260504022013 | 52 | 106 | 0.0 | 1.7 | 0.00 | 0.00 | 0.00 | 74 | 1013.3 |
| 20260504022009 | 52 | 107 | 0.0 | 1.7 | 0.00 | 0.00 | 0.00 | 74 | 1013.2 |
| 20260504021704 | 52 | 106 | 0.0 | 1.7 | 0.00 | 0.00 | 0.00 | 74 | 1013.2 |
| 20260504021604 | 52 | 111 | 0.0 | 1.7 | 0.00 | 0.00 | 0.00 | 75 | 1013.2 |
| 20260504021510 | 52 | 113 | 0.0 | 1.7 | 0.00 | 0.00 | 0.00 | 74 | 1013.2 |
| 20260504021401 | 52 | 113 | 0.0 | 1.7 | 0.00 | 0.00 | 0.00 | 74 | 1013.3 |
| 20260504021301 | 52 | 115 | 0.0 | 0.9 | 0.00 | 0.00 | 0.00 | 74 | 1013.3 |
| 20260504021252 | 52 | 115 | 0.0 | 0.9 | 0.00 | 0.00 | 0.00 | 74 | 1013.3 |
| 20260504021201 | 52 | 115 | 0.0 | 0.9 | 0.00 | 0.00 | 0.00 | 75 | 1013.3 |
| 20260504021101 | 52 | 115 | 0.0 | 0.9 | 0.00 | 0.00 | 0.00 | 75 | 1013.3 |
| 20260504021013 | 51 | 114 | 0.0 | 0.9 | 0.00 | 0.00 | 0.00 | 75 | 1013.2 |
| 20260504021009 | 52 | 115 | 0.0 | 0.9 | 0.00 | 0.00 | 0.00 | 75 | 1013.3 |
| 20260504021001 | 51 | 115 | 0.0 | 0.9 | 0.00 | 0.00 | 0.00 | 75 | 1013.3 |
| 20260504020957 | 51 | 114 | 0.0 | 0.9 | 0.00 | 0.00 | 0.00 | 75 | 1013.3 |
| 20260504020702 | 51 | 115 | 0.0 | 0.9 | 0.00 | 0.00 | 0.00 | 75 | 1013.2 |
| 20260504020601 | 51 | 117 | 0.0 | 1.7 | 0.00 | 0.00 | 0.00 | 75 | 1013.2 |
| 20260504020506 | 51 | 120 | 0.0 | 1.7 | 0.00 | 0.00 | 0.00 | 75 | 1013.3 |
| 20260504020401 | 51 | 120 | 0.0 | 1.7 | 0.00 | 0.00 | 0.00 | 75 | 1013.2 |
| 20260504020301 | 51 | 120 | 0.0 | 1.7 | 0.00 | 0.00 | 0.00 | 75 | 1013.3 |
| 20260504020239 | 51 | 121 | 0.0 | 1.7 | 0.00 | 0.00 | 0.00 | 75 | 1013.3 |
| 20260504020201 | 51 | 122 | 0.0 | 1.7 | 0.00 | 0.00 | 0.00 | 75 | 1013.3 |
| 20260504020100 | 51 | 122 | 0.0 | 1.7 | 0.00 | 0.00 | 0.00 | 75 | 1013.3 |
| 20260504020004 | 51 | 122 | 0.9 | 1.7 | 0.00 | 0.00 | 0.00 | 76 | 1013.3 |
| 20260504015901 | 51 | 122 | 0.9 | 1.7 | 0.00 | 0.00 | 0.00 | 76 | 1013.3 |
| 20260504015801 | 51 | 122 | 0.9 | 1.7 | 0.00 | 0.00 | 0.00 | 76 | 1013.3 |
| 20260504015740 | 51 | 122 | 0.9 | 1.7 | 0.00 | 0.00 | 0.00 | 76 | 1013.4 |
| 20260504015701 | 51 | 123 | 0.9 | 1.7 | 0.00 | 0.00 | 0.00 | 76 | 1013.4 |
| 20260504015600 | 51 | 124 | 0.9 | 1.7 | 0.00 | 0.00 | 0.00 | 76 | 1013.4 |
| 20260504015501 | 51 | 124 | 0.9 | 1.7 | 0.00 | 0.00 | 0.00 | 76 | 1013.4 |
| 20260504015400 | 51 | 124 | 0.9 | 1.7 | 0.00 | 0.00 | 0.00 | 76 | 1013.4 |
| 20260504015300 | 51 | 124 | 0.9 | 1.7 | 0.00 | 0.00 | 0.00 | 76 | 1013.4 |
| 20260504015238 | 51 | 124 | 0.9 | 1.7 | 0.00 | 0.00 | 0.00 | 76 | 1013.4 |
| 20260504015200 | 51 | 124 | 0.9 | 1.7 | 0.00 | 0.00 | 0.00 | 76 | 1013.4 |
| 20260504015101 | 51 | 124 | 0.9 | 1.7 | 0.00 | 0.00 | 0.00 | 76 | 1013.4 |
| 20260504015001 | 51 | 124 | 0.9 | 1.7 | 0.00 | 0.00 | 0.00 | 76 | 1013.3 |
| 20260504014901 | 51 | 124 | 0.9 | 1.7 | 0.00 | 0.00 | 0.00 | 76 | 1013.3 |
| 20260504014736 | 51 | 124 | 0.9 | 1.7 | 0.00 | 0.00 | 0.00 | 76 | 1013.3 |
| 20260504014658 | 51 | 124 | 0.9 | 1.7 | 0.00 | 0.00 | 0.00 | 76 | 1013.3 |
| 20260504014558 | 51 | 124 | 0.0 | 1.7 | 0.00 | 0.00 | 0.00 | 76 | 1013.4 |
| 20260504014458 | 51 | 124 | 0.0 | 1.7 | 0.00 | 0.00 | 0.00 | 76 | 1013.4 |
| 20260504014357 | 51 | 124 | 0.0 | 1.7 | 0.00 | 0.00 | 0.00 | 76 | 1013.3 |
| 20260504014234 | 51 | 124 | 0.0 | 1.7 | 0.00 | 0.00 | 0.00 | 76 | 1013.3 |
| 20260504014156 | 51 | 124 | 0.0 | 1.7 | 0.00 | 0.00 | 0.00 | 76 | 1013.3 |
| 20260504014056 | 51 | 124 | 0.9 | 1.7 | 0.00 | 0.00 | 0.00 | 76 | 1013.3 |
| 20260504013955 | 51 | 124 | 0.9 | 1.7 | 0.00 | 0.00 | 0.00 | 75 | 1013.3 |
| 20260504013851 | 51 | 124 | 0.9 | 1.7 | 0.00 | 0.00 | 0.00 | 75 | 1013.3 |
| 20260504013748 | 51 | 124 | 0.9 | 1.7 | 0.00 | 0.00 | 0.00 | 75 | 1013.3 |
| 20260504013732 | 51 | 125 | 0.9 | 1.7 | 0.00 | 0.00 | 0.00 | 75 | 1013.3 |
| 20260504013646 | 51 | 124 | 0.9 | 1.7 | 0.00 | 0.00 | 0.00 | 75 | 1013.4 |
| 20260504013546 | 51 | 124 | 0.9 | 1.7 | 0.00 | 0.00 | 0.00 | 75 | 1013.4 |
| 20260504013446 | 51 | 125 | 0.9 | 1.7 | 0.00 | 0.00 | 0.00 | 75 | 1013.4 |
| 20260504013345 | 51 | 124 | 0.9 | 1.7 | 0.00 | 0.00 | 0.00 | 75 | 1013.4 |
| 20260504013244 | 51 | 125 | 0.9 | 1.7 | 0.00 | 0.00 | 0.00 | 75 | 1013.4 |
| 20260504013232 | 51 | 125 | 0.9 | 1.7 | 0.00 | 0.00 | 0.00 | 74 | 1013.4 |
| 20260504013144 | 52 | 125 | 0.9 | 1.7 | 0.00 | 0.00 | 0.00 | 75 | 1013.4 |
| 20260504013044 | 52 | 125 | 0.9 | 1.7 | 0.00 | 0.00 | 0.00 | 75 | 1013.4 |
| 20260504012942 | 52 | 125 | 0.9 | 1.7 | 0.00 | 0.00 | 0.00 | 74 | 1013.4 |
| 20260504012840 | 52 | 125 | 0.9 | 1.7 | 0.00 | 0.00 | 0.00 | 74 | 1013.4 |
| 20260504012733 | 52 | 125 | 0.9 | 1.7 | 0.00 | 0.00 | 0.00 | 74 | 1013.4 |
| 20260504012638 | 52 | 125 | 0.9 | 1.7 | 0.00 | 0.00 | 0.00 | 74 | 1013.4 |
| 20260504012536 | 52 | 125 | 0.9 | 1.7 | 0.00 | 0.00 | 0.00 | 74 | 1013.4 |
| 20260504012451 | 52 | 125 | 0.9 | 1.7 | 0.00 | 0.00 | 0.00 | 74 | 1013.4 |
| 20260504012447 | 52 | 125 | 0.9 | 1.7 | 0.00 | 0.00 | 0.00 | 74 | 1013.4 |
| 20260504012443 | 52 | 125 | 0.9 | 1.7 | 0.00 | 0.00 | 0.00 | 74 | 1013.3 |
| 20260504012134 | 52 | 125 | 0.0 | 1.7 | 0.00 | 0.00 | 0.00 | 74 | 1013.3 |
| 20260504012032 | 52 | 125 | 0.0 | 1.7 | 0.00 | 0.00 | 0.00 | 74 | 1013.3 |
| 20260504011930 | 52 | 125 | 0.0 | 1.7 | 0.00 | 0.00 | 0.00 | 74 | 1013.3 |
| 20260504011830 | 52 | 125 | 0.0 | 1.7 | 0.00 | 0.00 | 0.00 | 74 | 1013.3 |
| 20260504011730 | 52 | 125 | 0.0 | 1.7 | 0.00 | 0.00 | 0.00 | 74 | 1013.3 |
| 20260504011629 | 52 | 125 | 0.0 | 1.7 | 0.00 | 0.00 | 0.00 | 74 | 1013.3 |
| 20260504011529 | 52 | 125 | 0.0 | 1.7 | 0.00 | 0.00 | 0.00 | 74 | 1013.3 |
| 20260504011429 | 52 | 125 | 0.0 | 1.7 | 0.00 | 0.00 | 0.00 | 74 | 1013.3 |
| 20260504011329 | 52 | 125 | 0.0 | 1.7 | 0.00 | 0.00 | 0.00 | 74 | 1013.3 |
| 20260504011229 | 52 | 125 | 0.9 | 1.7 | 0.00 | 0.00 | 0.00 | 73 | 1013.3 |
| 20260504011129 | 52 | 125 | 0.9 | 1.7 | 0.00 | 0.00 | 0.00 | 73 | 1013.3 |
| 20260504011029 | 52 | 125 | 0.9 | 1.7 | 0.00 | 0.00 | 0.00 | 73 | 1013.3 |
| 20260504010929 | 52 | 125 | 0.9 | 1.7 | 0.00 | 0.00 | 0.00 | 73 | 1013.3 |
| 20260504010829 | 52 | 125 | 0.9 | 1.7 | 0.00 | 0.00 | 0.00 | 73 | 1013.3 |
| 20260504010729 | 52 | 125 | 0.9 | 1.7 | 0.00 | 0.00 | 0.00 | 73 | 1013.3 |
| 20260504010629 | 52 | 125 | 0.9 | 1.7 | 0.00 | 0.00 | 0.00 | 73 | 1013.3 |
| 20260504010529 | 52 | 125 | 0.9 | 1.7 | 0.00 | 0.00 | 0.00 | 73 | 1013.3 |
| 20260504010429 | 53 | 125 | 0.9 | 1.7 | 0.00 | 0.00 | 0.00 | 73 | 1013.3 |
| 20260504010329 | 53 | 125 | 0.9 | 1.7 | 0.00 | 0.00 | 0.00 | 73 | 1013.3 |
| 20260504010229 | 53 | 125 | 0.9 | 1.7 | 0.00 | 0.00 | 0.00 | 73 | 1013.3 |
| 20260504010129 | 53 | 125 | 0.0 | 1.7 | 0.00 | 0.00 | 0.00 | 73 | 1013.3 |
| 20260504010029 | 53 | 124 | 0.0 | 1.7 | 0.00 | 0.00 | 0.00 | 73 | 1013.3 |
| 20260504005928 | 53 | 124 | 0.0 | 0.9 | 0.00 | 0.00 | 0.00 | 73 | 1013.3 |
| 20260504005829 | 53 | 124 | 0.0 | 1.7 | 0.00 | 0.00 | 0.00 | 73 | 1013.3 |
| 20260504005729 | 53 | 124 | 0.9 | 1.7 | 0.00 | 0.00 | 0.00 | 73 | 1013.3 |
| 20260504005629 | 53 | 124 | 0.9 | 1.7 | 0.00 | 0.00 | 0.00 | 73 | 1013.3 |
| 20260504005529 | 53 | 124 | 0.9 | 1.7 | 0.00 | 0.00 | 0.00 | 73 | 1013.3 |
| 20260504005429 | 53 | 124 | 0.9 | 1.7 | 0.00 | 0.00 | 0.00 | 73 | 1013.3 |
| 20260504005329 | 53 | 124 | 0.9 | 1.7 | 0.00 | 0.00 | 0.00 | 73 | 1013.3 |
| 20260504005229 | 53 | 124 | 0.9 | 1.7 | 0.00 | 0.00 | 0.00 | 72 | 1013.3 |
| 20260504005128 | 53 | 124 | 0.9 | 1.7 | 0.00 | 0.00 | 0.00 | 72 | 1013.3 |
| 20260504005028 | 53 | 124 | 0.9 | 1.7 | 0.00 | 0.00 | 0.00 | 72 | 1013.3 |
| 20260504004933 | 53 | 124 | 0.9 | 1.7 | 0.00 | 0.00 | 0.00 | 72 | 1013.3 |
| 20260504004828 | 53 | 124 | 0.0 | 1.7 | 0.00 | 0.00 | 0.00 | 72 | 1013.3 |
| 20260504004727 | 53 | 124 | 0.0 | 1.7 | 0.00 | 0.00 | 0.00 | 72 | 1013.3 |
| 20260504004628 | 53 | 124 | 0.0 | 1.7 | 0.00 | 0.00 | 0.00 | 73 | 1013.4 |
| 20260504004528 | 53 | 124 | 0.0 | 1.7 | 0.00 | 0.00 | 0.00 | 72 | 1013.3 |
| 20260504004432 | 53 | 124 | 0.0 | 0.9 | 0.00 | 0.00 | 0.00 | 72 | 1013.3 |
| 20260504004328 | 53 | 124 | 0.0 | 0.9 | 0.00 | 0.00 | 0.00 | 72 | 1013.3 |
| 20260504004226 | 53 | 124 | 0.0 | 1.7 | 0.00 | 0.00 | 0.00 | 72 | 1013.3 |
| 20260504004126 | 53 | 124 | 0.0 | 1.7 | 0.00 | 0.00 | 0.00 | 72 | 1013.3 |
| 20260504004024 | 53 | 124 | 0.0 | 1.7 | 0.00 | 0.00 | 0.00 | 72 | 1013.3 |
| 20260504003955 | 53 | 124 | 0.0 | 1.7 | 0.00 | 0.00 | 0.00 | 72 | 1013.3 |
| 20260504003950 | 53 | 124 | 0.0 | 1.7 | 0.00 | 0.00 | 0.00 | 72 | 1013.3 |
| 20260504003942 | 53 | 124 | 0.0 | 1.7 | 0.00 | 0.00 | 0.00 | 72 | 1013.4 |
| 20260504003725 | 53 | 124 | 0.0 | 1.7 | 0.00 | 0.00 | 0.00 | 71 | 1013.5 |
| 20260504003716 | 53 | 124 | 0.0 | 1.7 | 0.00 | 0.00 | 0.00 | 72 | 1013.3 |
| 20260504003710 | 53 | 124 | 0.0 | 1.7 | 0.00 | 0.00 | 0.00 | 71 | 1013.3 |
| 20260504003706 | 53 | 124 | 0.0 | 1.7 | 0.00 | 0.00 | 0.00 | 71 | 1013.4 |
| 20260504003445 | 53 | 124 | 0.0 | 1.7 | 0.00 | 0.00 | 0.00 | 71 | 1013.4 |
| 20260504003441 | 53 | 124 | 0.0 | 1.7 | 0.00 | 0.00 | 0.00 | 71 | 1013.4 |
| 20260504003209 | 53 | 124 | 0.0 | 1.7 | 0.00 | 0.00 | 0.00 | 71 | 1013.5 |
| 20260504003110 | 53 | 124 | 0.0 | 1.7 | 0.00 | 0.00 | 0.00 | 71 | 1013.4 |
| 20260504003010 | 53 | 124 | 0.0 | 1.7 | 0.00 | 0.00 | 0.00 | 71 | 1013.5 |
| 20260504002909 | 53 | 124 | 0.0 | 0.9 | 0.00 | 0.00 | 0.00 | 71 | 1013.5 |
| 20260504002810 | 53 | 124 | 0.0 | 0.9 | 0.00 | 0.00 | 0.00 | 71 | 1013.5 |
| 20260504002708 | 53 | 124 | 0.0 | 0.9 | 0.00 | 0.00 | 0.00 | 71 | 1013.5 |
| 20260504002608 | 53 | 124 | 0.0 | 0.9 | 0.00 | 0.00 | 0.00 | 71 | 1013.5 |
| 20260504002506 | 53 | 124 | 0.0 | 0.9 | 0.00 | 0.00 | 0.00 | 71 | 1013.5 |
| 20260504002404 | 53 | 124 | 0.0 | 0.9 | 0.00 | 0.00 | 0.00 | 71 | 1013.5 |
| 20260504002303 | 53 | 124 | 0.0 | 0.9 | 0.00 | 0.00 | 0.00 | 72 | 1013.5 |
| 20260504002229 | 53 | 124 | 0.0 | 0.9 | 0.00 | 0.00 | 0.00 | 72 | 1013.6 |
| 20260504002102 | 53 | 124 | 0.0 | 1.7 | 0.00 | 0.00 | 0.00 | 72 | 1013.6 |
| 20260504002002 | 53 | 124 | 0.0 | 2.6 | 0.00 | 0.00 | 0.00 | 71 | 1013.6 |
| 20260504001902 | 53 | 124 | 0.0 | 2.6 | 0.00 | 0.00 | 0.00 | 71 | 1013.6 |
| 20260504001802 | 53 | 124 | 0.0 | 2.6 | 0.00 | 0.00 | 0.00 | 71 | 1013.6 |
| 20260504001701 | 53 | 124 | 0.0 | 2.6 | 0.00 | 0.00 | 0.00 | 71 | 1013.6 |
| 20260504001601 | 53 | 128 | 0.0 | 2.6 | 0.00 | 0.00 | 0.00 | 71 | 1013.6 |
| 20260504001501 | 53 | 129 | 0.0 | 2.6 | 0.00 | 0.00 | 0.00 | 71 | 1013.7 |
| 20260504001401 | 53 | 130 | 0.0 | 2.6 | 0.00 | 0.00 | 0.00 | 71 | 1013.7 |
| 20260504001301 | 53 | 129 | 0.0 | 2.6 | 0.00 | 0.00 | 0.00 | 70 | 1013.7 |
| 20260504001201 | 53 | 129 | 0.0 | 2.6 | 0.00 | 0.00 | 0.00 | 70 | 1013.6 |
| 20260504001101 | 53 | 129 | 0.0 | 2.6 | 0.00 | 0.00 | 0.00 | 70 | 1013.6 |
| 20260504001001 | 53 | 248 | 0.0 | 1.7 | 0.00 | 0.00 | 0.00 | 71 | 1013.6 |
| 20260504000901 | 53 | 263 | 0.0 | 0.9 | 0.00 | 0.00 | 0.00 | 70 | 1013.7 |
| 20260504000800 | 53 | 267 | 0.0 | 0.9 | 0.00 | 0.00 | 0.00 | 70 | 1013.7 |
| 20260504000701 | 53 | 267 | 0.0 | 0.9 | 0.00 | 0.00 | 0.00 | 70 | 1013.7 |
| 20260504000601 | 53 | 268 | 0.0 | 0.9 | 0.00 | 0.00 | 0.00 | 70 | 1013.7 |
| 20260504000501 | 53 | 268 | 0.0 | 0.9 | 0.00 | 0.00 | 0.00 | 71 | 1013.7 |
| 20260504000401 | 53 | 268 | 0.0 | 0.9 | 0.00 | 0.00 | 0.00 | 71 | 1013.7 |
| 20260504000301 | 53 | 268 | 0.0 | 0.9 | 0.00 | 0.00 | 0.00 | 70 | 1013.7 |
| 20260504000201 | 53 | 268 | 0.0 | 0.9 | 0.00 | 0.00 | 0.00 | 70 | 1013.6 |
| 20260504000100 | 53 | 269 | 0.0 | 0.9 | 0.00 | 0.00 | 0.00 | 70 | 1013.6 |
| 20260504000000 | 53 | 269 | 0.0 | 0.9 | 0.00 | 0.00 | 0.00 | 70 | 1013.6 |
| 20260503235903 | 53 | 269 | 0.0 | 0.9 | 0.00 | 0.00 | 0.00 | 70 | 1013.6 |
| 20260503235801 | 53 | 269 | 0.0 | 0.9 | 0.00 | 0.00 | 0.00 | 70 | 1013.6 |
| 20260503235701 | 53 | 269 | 0.0 | 0.9 | 0.00 | 0.00 | 0.00 | 69 | 1013.6 |
| 20260503235601 | 53 | 269 | 0.0 | 0.9 | 0.00 | 0.00 | 0.00 | 69 | 1013.6 |
| 20260503235501 | 53 | 269 | 0.0 | 0.9 | 0.00 | 0.00 | 0.00 | 69 | 1013.6 |
| 20260503235454 | 54 | 269 | 0.0 | 1.7 | 0.00 | 0.00 | 0.00 | 69 | 1013.5 |
| 20260503235448 | 54 | 269 | 0.0 | 1.7 | 0.00 | 0.00 | 0.00 | 69 | 1013.6 |
| 20260503235440 | 54 | 269 | 0.0 | 1.7 | 0.00 | 0.00 | 0.00 | 69 | 1013.6 |
| 20260503235200 | 54 | 269 | 0.0 | 1.7 | 0.00 | 0.00 | 0.00 | 69 | 1013.5 |
| 20260503235100 | 54 | 269 | 0.0 | 1.7 | 0.00 | 0.00 | 0.00 | 69 | 1013.6 |
| 20260503235000 | 54 | 269 | 0.0 | 1.7 | 0.00 | 0.00 | 0.00 | 69 | 1013.5 |
| 20260503234858 | 54 | 269 | 0.0 | 1.7 | 0.00 | 0.00 | 0.00 | 69 | 1013.5 |
| 20260503234730 | 54 | 269 | 0.0 | 1.7 | 0.00 | 0.00 | 0.00 | 69 | 1013.6 |
| 20260503234658 | 54 | 269 | 0.0 | 1.7 | 0.00 | 0.00 | 0.00 | 69 | 1013.6 |
| 20260503234558 | 54 | 269 | 0.0 | 1.7 | 0.00 | 0.00 | 0.00 | 69 | 1013.6 |
| 20260503234458 | 54 | 268 | 0.0 | 1.7 | 0.00 | 0.00 | 0.00 | 68 | 1013.6 |
| 20260503234354 | 54 | 268 | 0.0 | 0.9 | 0.00 | 0.00 | 0.00 | 68 | 1013.6 |
| 20260503234229 | 54 | 269 | 0.0 | 0.9 | 0.00 | 0.00 | 0.00 | 68 | 1013.6 |
| 20260503234153 | 54 | 269 | 0.0 | 0.9 | 0.00 | 0.00 | 0.00 | 68 | 1013.6 |
| 20260503234053 | 54 | 269 | 0.0 | 0.9 | 0.00 | 0.00 | 0.00 | 68 | 1013.5 |
| 20260503233951 | 54 | 269 | 0.0 | 0.9 | 0.00 | 0.00 | 0.00 | 68 | 1013.5 |
| 20260503233848 | 54 | 269 | 0.0 | 0.9 | 0.00 | 0.00 | 0.00 | 68 | 1013.5 |
| 20260503233728 | 54 | 269 | 0.0 | 0.9 | 0.00 | 0.00 | 0.00 | 67 | 1013.4 |
| 20260503233646 | 54 | 269 | 0.0 | 0.9 | 0.00 | 0.00 | 0.00 | 67 | 1013.4 |
| 20260503233546 | 54 | 269 | 0.0 | 1.7 | 0.00 | 0.00 | 0.00 | 67 | 1013.4 |
| 20260503233446 | 54 | 269 | 0.0 | 1.7 | 0.00 | 0.00 | 0.00 | 67 | 1013.4 |
| 20260503233346 | 54 | 269 | 0.9 | 1.7 | 0.00 | 0.00 | 0.00 | 67 | 1013.5 |
| 20260503233229 | 54 | 269 | 0.9 | 1.7 | 0.00 | 0.00 | 0.00 | 66 | 1013.5 |
| 20260503233222 | 55 | 269 | 0.9 | 2.6 | 0.00 | 0.00 | 0.00 | 66 | 1013.4 |
| 20260503233211 | 54 | 269 | 0.9 | 1.7 | 0.00 | 0.00 | 0.00 | 66 | 1013.5 |
| 20260503233207 | 54 | 269 | 0.9 | 1.7 | 0.00 | 0.00 | 0.00 | 66 | 1013.5 |
| 20260503232951 | 55 | 269 | 0.9 | 2.6 | 0.00 | 0.00 | 0.00 | 66 | 1013.5 |
| 20260503232943 | 55 | 269 | 0.9 | 2.6 | 0.00 | 0.00 | 0.00 | 66 | 1013.4 |
| 20260503232939 | 55 | 269 | 0.9 | 2.6 | 0.00 | 0.00 | 0.00 | 66 | 1013.4 |
| 20260503232634 | 55 | 269 | 0.9 | 2.6 | 0.00 | 0.00 | 0.00 | 66 | 1013.4 |
| 20260503232534 | 55 | 269 | 0.9 | 2.6 | 0.00 | 0.00 | 0.00 | 66 | 1013.4 |
| 20260503232434 | 55 | 269 | 0.9 | 2.6 | 0.00 | 0.00 | 0.00 | 66 | 1013.4 |
| 20260503232332 | 55 | 269 | 0.9 | 2.6 | 0.00 | 0.00 | 0.00 | 66 | 1013.3 |
| 20260503232228 | 55 | 269 | 0.9 | 2.6 | 0.00 | 0.00 | 0.00 | 66 | 1013.3 |
| 20260503232133 | 55 | 269 | 0.9 | 2.6 | 0.00 | 0.00 | 0.00 | 66 | 1013.3 |
| 20260503232030 | 55 | 269 | 0.9 | 2.6 | 0.00 | 0.00 | 0.00 | 66 | 1013.3 |
| 20260503231953 | 55 | 269 | 0.9 | 2.6 | 0.00 | 0.00 | 0.00 | 66 | 1013.3 |
| 20260503231945 | 55 | 269 | 0.0 | 1.7 | 0.00 | 0.00 | 0.00 | 65 | 1013.3 |
| 20260503231941 | 55 | 269 | 0.0 | 1.7 | 0.00 | 0.00 | 0.00 | 65 | 1013.4 |
| 20260503231630 | 55 | 269 | 0.0 | 1.7 | 0.00 | 0.00 | 0.00 | 65 | 1013.4 |
| 20260503231528 | 55 | 269 | 0.0 | 0.9 | 0.00 | 0.00 | 0.00 | 65 | 1013.4 |
| 20260503231427 | 55 | 269 | 0.0 | 0.9 | 0.00 | 0.00 | 0.00 | 65 | 1013.3 |
| 20260503231326 | 55 | 269 | 0.0 | 0.9 | 0.00 | 0.00 | 0.00 | 65 | 1013.4 |
| 20260503231224 | 55 | 268 | 0.0 | 1.7 | 0.00 | 0.00 | 0.00 | 65 | 1013.3 |
| 20260503231215 | 55 | 268 | 0.9 | 1.7 | 0.00 | 0.00 | 0.00 | 65 | 1013.4 |
| 20260503231211 | 55 | 268 | 0.0 | 1.7 | 0.00 | 0.00 | 0.00 | 65 | 1013.4 |
| 20260503231207 | 55 | 268 | 0.9 | 1.7 | 0.00 | 0.00 | 0.00 | 66 | 1013.4 |
| 20260503230949 | 55 | 268 | 0.9 | 1.7 | 0.00 | 0.00 | 0.00 | 66 | 1013.4 |
| 20260503230941 | 55 | 268 | 0.9 | 1.7 | 0.00 | 0.00 | 0.00 | 65 | 1013.4 |
| 20260503230718 | 55 | 268 | 0.9 | 1.7 | 0.00 | 0.00 | 0.00 | 65 | 1013.4 |
| 20260503230618 | 55 | 268 | 0.9 | 1.7 | 0.00 | 0.00 | 0.00 | 65 | 1013.5 |
| 20260503230516 | 55 | 268 | 0.9 | 1.7 | 0.00 | 0.00 | 0.00 | 65 | 1013.5 |
| 20260503230413 | 56 | 268 | 0.9 | 1.7 | 0.00 | 0.00 | 0.00 | 65 | 1013.4 |
| 20260503230313 | 56 | 268 | 0.9 | 1.7 | 0.00 | 0.00 | 0.00 | 65 | 1013.4 |
| 20260503230212 | 56 | 268 | 0.9 | 1.7 | 0.00 | 0.00 | 0.00 | 65 | 1013.4 |
| 20260503230112 | 56 | 268 | 0.9 | 1.7 | 0.00 | 0.00 | 0.00 | 64 | 1013.4 |
| 20260503230012 | 56 | 268 | 0.9 | 1.7 | 0.00 | 0.00 | 0.00 | 64 | 1013.3 |
| 20260503225912 | 56 | 269 | 0.9 | 1.7 | 0.00 | 0.00 | 0.00 | 64 | 1013.3 |
| 20260503225812 | 56 | 269 | 0.9 | 1.7 | 0.00 | 0.00 | 0.00 | 65 | 1013.3 |
| 20260503225718 | 56 | 269 | 0.9 | 1.7 | 0.00 | 0.00 | 0.00 | 65 | 1013.1 |
| 20260503225712 | 56 | 269 | 0.9 | 1.7 | 0.00 | 0.00 | 0.00 | 64 | 1013.2 |
| 20260503225707 | 56 | 269 | 0.9 | 1.7 | 0.00 | 0.00 | 0.00 | 64 | 1013.2 |
| 20260503225704 | 56 | 269 | 0.9 | 1.7 | 0.00 | 0.00 | 0.00 | 65 | 1013.2 |
| 20260503225444 | 56 | 269 | 0.9 | 1.7 | 0.00 | 0.00 | 0.00 | 65 | 1013.2 |
| 20260503225436 | 56 | 269 | 0.9 | 1.7 | 0.00 | 0.00 | 0.00 | 65 | 1013.1 |
| 20260503225204 | 56 | 269 | 0.9 | 1.7 | 0.00 | 0.00 | 0.00 | 65 | 1013.1 |
| 20260503225102 | 56 | 268 | 0.9 | 1.7 | 0.00 | 0.00 | 0.00 | 65 | 1013.1 |
| 20260503225002 | 56 | 268 | 0.9 | 1.7 | 0.00 | 0.00 | 0.00 | 65 | 1013.2 |
| 20260503224953 | 56 | 268 | 0.9 | 1.7 | 0.00 | 0.00 | 0.00 | 65 | 1013.2 |
| 20260503224945 | 56 | 268 | 0.9 | 1.7 | 0.00 | 0.00 | 0.00 | 65 | 1013.2 |
| 20260503224937 | 56 | 268 | 0.9 | 1.7 | 0.00 | 0.00 | 0.00 | 65 | 1013.2 |
| 20260503224701 | 56 | 268 | 0.9 | 1.7 | 0.00 | 0.00 | 0.00 | 65 | 1013.2 |
| 20260503224601 | 56 | 268 | 0.9 | 1.7 | 0.00 | 0.00 | 0.00 | 65 | 1013.2 |
| 20260503224501 | 56 | 268 | 0.9 | 1.7 | 0.00 | 0.00 | 0.00 | 65 | 1013.3 |
| 20260503224401 | 56 | 268 | 0.9 | 1.7 | 0.00 | 0.00 | 0.00 | 65 | 1013.3 |